| time (UTC) | temp F | wind direction | speed MPH | gust MPH | rain 1hr in | rain 24hr in | rain mn in | humidity % | barometer mb |
| 20260902202408 | 73 | 293 | 3.0 | 4.0 | 0.00 | 0.00 | 0.00 | 67 | 1024.0 |
| 20260902202001 | 73 | 286 | 3.0 | 4.0 | 0.00 | 0.00 | 0.00 | 67 | 1023.9 |
| 20260902201828 | 73 | 282 | 2.0 | 4.0 | 0.00 | 0.00 | 0.00 | 67 | 1023.9 |
| 20260902201649 | 73 | 302 | 2.0 | 4.0 | 0.00 | 0.00 | 0.00 | 66 | 1023.9 |
| 20260902201623 | 73 | 302 | 2.0 | 4.0 | 0.00 | 0.00 | 0.00 | 66 | 1023.9 |
| 20260902201510 | 73 | 292 | 2.0 | 4.0 | 0.00 | 0.00 | 0.00 | 66 | 1023.9 |
| 20260902201022 | 74 | 300 | 2.0 | 6.0 | 0.00 | 0.00 | 0.00 | 65 | 1023.8 |
| 20260902200859 | 74 | 293 | 2.0 | 6.0 | 0.00 | 0.00 | 0.00 | 65 | 1023.8 |
| 20260902200731 | 74 | 311 | 3.0 | 6.0 | 0.00 | 0.00 | 0.00 | 65 | 1023.7 |
| 20260902200705 | 74 | 311 | 3.0 | 6.0 | 0.00 | 0.00 | 0.00 | 65 | 1023.7 |
| 20260902200238 | 74 | 286 | 4.0 | 6.0 | 0.00 | 0.00 | 0.00 | 65 | 1023.6 |
| 20260902200118 | 74 | 298 | 3.0 | 6.0 | 0.00 | 0.00 | 0.00 | 65 | 1023.6 |
| 20260902200054 | 74 | 265 | 3.0 | 7.0 | 0.00 | 0.00 | 0.00 | 65 | 1023.5 |
| 20260902195913 | 74 | 263 | 3.0 | 7.0 | 0.00 | 0.00 | 0.00 | 64 | 1023.5 |
| 20260902195619 | 74 | 288 | 3.0 | 7.0 | 0.00 | 0.00 | 0.00 | 64 | 1023.5 |
| 20260902195223 | 75 | 282 | 4.0 | 7.0 | 0.00 | 0.00 | 0.00 | 63 | 1023.4 |
| 20260902194755 | 75 | 285 | 4.0 | 7.0 | 0.00 | 0.00 | 0.00 | 63 | 1023.3 |
| 20260902194458 | 75 | 275 | 4.0 | 7.0 | 0.00 | 0.00 | 0.00 | 63 | 1023.2 |
| 20260902194338 | 75 | 295 | 4.0 | 7.0 | 0.00 | 0.00 | 0.00 | 63 | 1023.2 |
| 20260902193950 | 76 | 279 | 4.0 | 7.0 | 0.00 | 0.00 | 0.00 | 62 | 1023.2 |
| 20260902193917 | 76 | 282 | 3.0 | 7.0 | 0.00 | 0.00 | 0.00 | 62 | 1023.2 |
| 20260902193247 | 76 | 266 | 4.0 | 8.0 | 0.00 | 0.00 | 0.00 | 62 | 1023.1 |
| 20260902193128 | 76 | 256 | 4.0 | 8.0 | 0.00 | 0.00 | 0.00 | 62 | 1023.0 |
| 20260902192947 | 76 | 306 | 3.0 | 8.0 | 0.00 | 0.00 | 0.00 | 62 | 1023.0 |
| 20260902192536 | 76 | 280 | 3.0 | 8.0 | 0.00 | 0.00 | 0.00 | 61 | 1022.9 |
| 20260902192128 | 76 | 294 | 3.0 | 7.0 | 0.00 | 0.00 | 0.00 | 60 | 1022.9 |
| 20260902192002 | 77 | 299 | 4.0 | 7.0 | 0.00 | 0.00 | 0.00 | 60 | 1022.9 |
| 20260902191836 | 77 | 294 | 4.0 | 7.0 | 0.00 | 0.00 | 0.00 | 60 | 1022.8 |
| 20260902191303 | 77 | 288 | 3.0 | 8.0 | 0.00 | 0.00 | 0.00 | 59 | 1022.8 |
| 20260902191147 | 77 | 292 | 3.0 | 8.0 | 0.00 | 0.00 | 0.00 | 59 | 1022.8 |
| 20260902191026 | 78 | 300 | 3.0 | 8.0 | 0.00 | 0.00 | 0.00 | 59 | 1022.8 |
| 20260902190915 | 78 | 302 | 3.0 | 8.0 | 0.00 | 0.00 | 0.00 | 59 | 1022.7 |
| 20260902190529 | 78 | 273 | 4.0 | 8.0 | 0.00 | 0.00 | 0.00 | 58 | 1022.7 |
| 20260902190409 | 78 | 289 | 2.0 | 8.0 | 0.00 | 0.00 | 0.00 | 58 | 1022.7 |
| 20260902190338 | 78 | 323 | 2.0 | 8.0 | 0.00 | 0.00 | 0.00 | 58 | 1022.8 |
| 20260902190225 | 78 | 298 | 3.0 | 8.0 | 0.00 | 0.00 | 0.00 | 58 | 1022.7 |
| 20260902190056 | 78 | 298 | 3.0 | 8.0 | 0.00 | 0.00 | 0.00 | 58 | 1022.7 |
| 20260902185928 | 79 | 302 | 3.0 | 8.0 | 0.00 | 0.00 | 0.00 | 57 | 1022.7 |
| 20260902185911 | 79 | 302 | 3.0 | 8.0 | 0.00 | 0.00 | 0.00 | 57 | 1022.7 |
| 20260902185715 | 79 | 296 | 3.0 | 8.0 | 0.00 | 0.00 | 0.00 | 57 | 1022.6 |
| 20260902185307 | 79 | 323 | 3.0 | 7.0 | 0.00 | 0.00 | 0.00 | 57 | 1022.6 |
| 20260902185159 | 79 | 302 | 3.0 | 7.0 | 0.00 | 0.00 | 0.00 | 56 | 1022.6 |
| 20260902185026 | 80 | 315 | 3.0 | 7.0 | 0.00 | 0.00 | 0.00 | 56 | 1022.5 |
| 20260902184907 | 80 | 315 | 3.0 | 9.0 | 0.00 | 0.00 | 0.00 | 56 | 1022.5 |
| 20260902184831 | 80 | 294 | 2.0 | 9.0 | 0.00 | 0.00 | 0.00 | 56 | 1022.5 |
| 20260902184647 | 80 | 306 | 3.0 | 9.0 | 0.00 | 0.00 | 0.00 | 56 | 1022.5 |
| 20260902183906 | 81 | 303 | 2.0 | 5.0 | 0.00 | 0.00 | 0.00 | 55 | 1022.5 |
| 20260902183833 | 81 | 303 | 2.0 | 5.0 | 0.00 | 0.00 | 0.00 | 55 | 1022.5 |
| 20260902183440 | 81 | 303 | 2.0 | 5.0 | 0.00 | 0.00 | 0.00 | 54 | 1022.4 |
| 20260902183007 | 82 | 315 | 3.0 | 5.0 | 0.00 | 0.00 | 0.00 | 54 | 1022.5 |
| 20260902182854 | 82 | 315 | 2.0 | 5.0 | 0.00 | 0.00 | 0.00 | 53 | 1022.5 |
| 20260902182826 | 82 | 306 | 2.0 | 5.0 | 0.00 | 0.00 | 0.00 | 53 | 1022.4 |
| 20260902182651 | 82 | 325 | 2.0 | 7.0 | 0.00 | 0.00 | 0.00 | 53 | 1022.4 |
| 20260902182150 | 82 | 309 | 3.0 | 7.0 | 0.00 | 0.00 | 0.00 | 53 | 1022.4 |
| 20260902182014 | 82 | 295 | 3.0 | 7.0 | 0.00 | 0.00 | 0.00 | 53 | 1022.4 |
| 20260902181851 | 83 | 319 | 3.0 | 8.0 | 0.00 | 0.00 | 0.00 | 52 | 1022.3 |
| 20260902181823 | 83 | 320 | 3.0 | 8.0 | 0.00 | 0.00 | 0.00 | 52 | 1022.3 |
| 20260902181650 | 83 | 306 | 4.0 | 9.0 | 0.00 | 0.00 | 0.00 | 53 | 1022.3 |
| 20260902181224 | 83 | 312 | 3.0 | 9.0 | 0.00 | 0.00 | 0.00 | 52 | 1022.3 |
| 20260902181059 | 83 | 348 | 3.0 | 9.0 | 0.00 | 0.00 | 0.00 | 52 | 1022.3 |
| 20260902180920 | 84 | 321 | 4.0 | 9.0 | 0.00 | 0.00 | 0.00 | 51 | 1022.2 |
| 20260902180816 | 84 | 308 | 4.0 | 9.0 | 0.00 | 0.00 | 0.00 | 52 | 1022.3 |
| 20260902180739 | 84 | 309 | 4.0 | 9.0 | 0.00 | 0.00 | 0.00 | 52 | 1022.2 |
| 20260902180601 | 84 | 307 | 6.0 | 9.0 | 0.00 | 0.00 | 0.00 | 51 | 1022.3 |
| 20260902180420 | 84 | 308 | 6.0 | 8.0 | 0.00 | 0.00 | 0.00 | 53 | 1022.2 |
| 20260902180355 | 84 | 306 | 4.0 | 8.0 | 0.00 | 0.00 | 0.00 | 53 | 1022.1 |
| 20260902180227 | 85 | 244 | 2.0 | 7.0 | 0.00 | 0.00 | 0.00 | 54 | 1022.1 |
| 20260902175811 | 85 | 227 | 2.0 | 7.0 | 0.00 | 0.00 | 0.00 | 53 | 1022.0 |
| 20260902175253 | 85 | 217 | 4.0 | 10.0 | 0.00 | 0.00 | 0.00 | 53 | 1022.1 |
| 20260902175138 | 85 | 269 | 4.0 | 10.0 | 0.00 | 0.00 | 0.00 | 52 | 1022.1 |
| 20260902174956 | 85 | 262 | 4.0 | 10.0 | 0.00 | 0.00 | 0.00 | 52 | 1022.0 |
| 20260902174536 | 85 | 267 | 2.0 | 8.0 | 0.00 | 0.00 | 0.00 | 53 | 1022.1 |
| 20260902174216 | 85 | 220 | 2.0 | 8.0 | 0.00 | 0.00 | 0.00 | 53 | 1022.1 |
| 20260902174043 | 85 | 235 | 3.0 | 8.0 | 0.00 | 0.00 | 0.00 | 52 | 1022.1 |
| 20260902173907 | 86 | 244 | 4.0 | 10.0 | 0.00 | 0.00 | 0.00 | 52 | 1022.1 |
| 20260902173801 | 86 | 253 | 3.0 | 10.0 | 0.00 | 0.00 | 0.00 | 52 | 1022.0 |
| 20260902173707 | 86 | 244 | 3.0 | 10.0 | 0.00 | 0.00 | 0.00 | 52 | 1021.9 |
| 20260902173522 | 86 | 217 | 3.0 | 10.0 | 0.00 | 0.00 | 0.00 | 52 | 1022.0 |
| 20260902173023 | 87 | 248 | 4.0 | 10.0 | 0.00 | 0.00 | 0.00 | 49 | 1022.0 |
| 20260902172846 | 87 | 234 | 3.0 | 7.0 | 0.00 | 0.00 | 0.00 | 49 | 1022.0 |
| 20260902172733 | 87 | 257 | 2.0 | 7.0 | 0.00 | 0.00 | 0.00 | 49 | 1021.9 |
| 20260902172640 | 87 | 228 | 3.0 | 7.0 | 0.00 | 0.00 | 0.00 | 49 | 1021.9 |
| 20260902172455 | 88 | 217 | 2.0 | 7.0 | 0.00 | 0.00 | 0.00 | 47 | 1021.9 |
| 20260902172136 | 88 | 246 | 2.0 | 3.0 | 0.00 | 0.00 | 0.00 | 46 | 1022.0 |
| 20260902172011 | 88 | 240 | 0.0 | 3.0 | 0.00 | 0.00 | 0.00 | 46 | 1022.0 |
| 20260902171840 | 88 | 308 | 1.0 | 3.0 | 0.00 | 0.00 | 0.00 | 47 | 1021.9 |
| 20260902171806 | 88 | 308 | 1.0 | 3.0 | 0.00 | 0.00 | 0.00 | 46 | 1021.9 |
| 20260902171735 | 88 | 308 | 1.0 | 3.0 | 0.00 | 0.00 | 0.00 | 46 | 1021.9 |
| 20260902171243 | 87 | 308 | 1.0 | 5.0 | 0.00 | 0.00 | 0.00 | 47 | 1022.0 |
| 20260902171113 | 87 | 285 | 0.0 | 5.0 | 0.00 | 0.00 | 0.00 | 46 | 1021.9 |
| 20260902170950 | 87 | 306 | 1.0 | 5.0 | 0.00 | 0.00 | 0.00 | 47 | 1021.9 |
| 20260902170909 | 87 | 306 | 2.0 | 5.0 | 0.00 | 0.00 | 0.00 | 46 | 1021.9 |
| 20260902170823 | 87 | 305 | 3.0 | 5.0 | 0.00 | 0.00 | 0.00 | 46 | 1021.9 |
| 20260902170101 | 87 | 269 | 1.0 | 11.0 | 0.00 | 0.00 | 0.00 | 48 | 1021.9 |
| 20260902170010 | 87 | 269 | 2.0 | 11.0 | 0.00 | 0.00 | 0.00 | 47 | 1021.9 |
| 20260902165929 | 86 | 304 | 2.0 | 11.0 | 0.00 | 0.00 | 0.00 | 48 | 1021.9 |
| 20260902165800 | 86 | 285 | 2.0 | 11.0 | 0.00 | 0.00 | 0.00 | 47 | 1021.9 |
| 20260902165431 | 87 | 304 | 4.0 | 11.0 | 0.00 | 0.00 | 0.00 | 47 | 1022.0 |
| 20260902165258 | 87 | 270 | 6.0 | 11.0 | 0.00 | 0.00 | 0.00 | 46 | 1021.9 |
| 20260902165121 | 87 | 272 | 1.0 | 7.0 | 0.00 | 0.00 | 0.00 | 47 | 1022.0 |
| 20260902165024 | 87 | 253 | 1.0 | 7.0 | 0.00 | 0.00 | 0.00 | 48 | 1022.0 |
| 20260902164931 | 87 | 242 | 1.0 | 9.0 | 0.00 | 0.00 | 0.00 | 48 | 1021.9 |
| 20260902164420 | 86 | 292 | 1.0 | 11.0 | 0.00 | 0.00 | 0.00 | 47 | 1022.0 |
| 20260902164403 | 86 | 261 | 1.0 | 11.0 | 0.00 | 0.00 | 0.00 | 47 | 1022.0 |
| 20260902164241 | 86 | 324 | 3.0 | 11.0 | 0.00 | 0.00 | 0.00 | 48 | 1022.1 |
| 20260902164107 | 86 | 288 | 6.0 | 11.0 | 0.00 | 0.00 | 0.00 | 48 | 1022.0 |
| 20260902164001 | 86 | 274 | 4.0 | 11.0 | 0.00 | 0.00 | 0.00 | 47 | 1021.9 |
| 20260902163144 | 86 | 264 | 4.0 | 8.0 | 0.00 | 0.00 | 0.00 | 48 | 1022.0 |
| 20260902163126 | 86 | 221 | 4.0 | 8.0 | 0.00 | 0.00 | 0.00 | 47 | 1022.0 |
| 20260902162954 | 86 | 299 | 5.0 | 8.0 | 0.00 | 0.00 | 0.00 | 47 | 1022.0 |
| 20260902162824 | 87 | 285 | 2.0 | 8.0 | 0.00 | 0.00 | 0.00 | 47 | 1022.1 |
| 20260902162659 | 86 | 256 | 3.0 | 8.0 | 0.00 | 0.00 | 0.00 | 47 | 1022.1 |
| 20260902162621 | 86 | 256 | 3.0 | 8.0 | 0.00 | 0.00 | 0.00 | 47 | 1022.0 |
| 20260902162446 | 87 | 294 | 6.0 | 8.0 | 0.00 | 0.00 | 0.00 | 46 | 1022.1 |
| 20260902162307 | 87 | 266 | 2.0 | 8.0 | 0.00 | 0.00 | 0.00 | 46 | 1022.0 |
| 20260902162245 | 87 | 273 | 2.0 | 8.0 | 0.00 | 0.00 | 0.00 | 46 | 1022.0 |
| 20260902162124 | 87 | 349 | 2.0 | 5.0 | 0.00 | 0.00 | 0.00 | 47 | 1022.0 |
| 20260902161055 | 87 | 288 | 0.0 | 4.0 | 0.00 | 0.00 | 0.00 | 46 | 1022.0 |
| 20260902160903 | 87 | 352 | 0.0 | 4.0 | 0.00 | 0.00 | 0.00 | 47 | 1022.1 |
| 20260902160832 | 87 | 352 | 0.0 | 4.0 | 0.00 | 0.00 | 0.00 | 47 | 1022.0 |
| 20260902160744 | 86 | 352 | 1.0 | 4.0 | 0.00 | 0.00 | 0.00 | 47 | 1022.1 |
| 20260902160639 | 86 | 352 | 1.0 | 4.0 | 0.00 | 0.00 | 0.00 | 47 | 1022.0 |
| 20260902160301 | 86 | 352 | 2.0 | 4.0 | 0.00 | 0.00 | 0.00 | 47 | 1022.1 |
| 20260902160140 | 86 | 352 | 3.0 | 5.0 | 0.00 | 0.00 | 0.00 | 47 | 1022.0 |
| 20260902160001 | 86 | 306 | 2.0 | 5.0 | 0.00 | 0.00 | 0.00 | 49 | 1022.1 |
| 20260902155936 | 86 | 288 | 2.0 | 5.0 | 0.00 | 0.00 | 0.00 | 49 | 1022.1 |
| 20260902155825 | 86 | 213 | 1.0 | 5.0 | 0.00 | 0.00 | 0.00 | 48 | 1022.1 |
| 20260902155652 | 86 | 302 | 2.0 | 5.0 | 0.00 | 0.00 | 0.00 | 49 | 1022.1 |
| 20260902155325 | 86 | 298 | 1.0 | 5.0 | 0.00 | 0.00 | 0.00 | 49 | 1022.0 |
| 20260902155140 | 86 | 346 | 0.0 | 6.0 | 0.00 | 0.00 | 0.00 | 49 | 1022.0 |
| 20260902155023 | 85 | 346 | 2.0 | 6.0 | 0.00 | 0.00 | 0.00 | 49 | 1022.1 |
| 20260902154946 | 85 | 346 | 2.0 | 6.0 | 0.00 | 0.00 | 0.00 | 49 | 1022.1 |
| 20260902154857 | 85 | 331 | 0.0 | 6.0 | 0.00 | 0.00 | 0.00 | 49 | 1022.2 |
| 20260902154744 | 85 | 331 | 3.0 | 6.0 | 0.00 | 0.00 | 0.00 | 49 | 1022.1 |
| 20260902154633 | 85 | 344 | 4.0 | 6.0 | 0.00 | 0.00 | 0.00 | 49 | 1022.2 |
| 20260902154606 | 85 | 352 | 3.0 | 7.0 | 0.00 | 0.00 | 0.00 | 49 | 1022.2 |
| 20260902154435 | 85 | 352 | 2.0 | 7.0 | 0.00 | 0.00 | 0.00 | 50 | 1022.3 |
| 20260902154242 | 85 | 306 | 1.0 | 7.0 | 0.00 | 0.00 | 0.00 | 49 | 1022.3 |
| 20260902154207 | 85 | 306 | 1.0 | 7.0 | 0.00 | 0.00 | 0.00 | 49 | 1022.2 |
| 20260902154102 | 85 | 196 | 2.0 | 7.0 | 0.00 | 0.00 | 0.00 | 49 | 1022.2 |
| 20260902153917 | 85 | 277 | 5.0 | 7.0 | 0.00 | 0.00 | 0.00 | 48 | 1022.2 |
| 20260902153808 | 85 | 301 | 5.0 | 8.0 | 0.00 | 0.00 | 0.00 | 49 | 1022.2 |
| 20260902153740 | 85 | 278 | 3.0 | 8.0 | 0.00 | 0.00 | 0.00 | 48 | 1022.2 |
| 20260902153559 | 85 | 286 | 2.0 | 8.0 | 0.00 | 0.00 | 0.00 | 49 | 1022.2 |
| 20260902153432 | 85 | 46 | 2.0 | 8.0 | 0.00 | 0.00 | 0.00 | 49 | 1022.3 |
| 20260902153408 | 85 | 46 | 2.0 | 8.0 | 0.00 | 0.00 | 0.00 | 49 | 1022.2 |
| 20260902153304 | 85 | 74 | 4.0 | 8.0 | 0.00 | 0.00 | 0.00 | 49 | 1022.1 |
| 20260902153127 | 85 | 9 | 3.0 | 8.0 | 0.00 | 0.00 | 0.00 | 49 | 1022.2 |
| 20260902153010 | 85 | 279 | 2.0 | 4.0 | 0.00 | 0.00 | 0.00 | 50 | 1022.2 |
| 20260902152149 | 85 | 218 | 2.0 | 6.0 | 0.00 | 0.00 | 0.00 | 50 | 1022.2 |
| 20260902151703 | 85 | 277 | 2.0 | 6.0 | 0.00 | 0.00 | 0.00 | 50 | 1022.2 |
| 20260902151631 | 85 | 299 | 1.0 | 6.0 | 0.00 | 0.00 | 0.00 | 50 | 1022.2 |
| 20260902151503 | 85 | 309 | 3.0 | 7.0 | 0.00 | 0.00 | 0.00 | 50 | 1022.3 |
| 20260902151328 | 85 | 309 | 4.0 | 7.0 | 0.00 | 0.00 | 0.00 | 51 | 1022.3 |
| 20260902151253 | 85 | 310 | 4.0 | 7.0 | 0.00 | 0.00 | 0.00 | 49 | 1022.3 |
| 20260902151137 | 85 | 318 | 2.0 | 7.0 | 0.00 | 0.00 | 0.00 | 50 | 1022.3 |
| 20260902151000 | 85 | 50 | 4.0 | 7.0 | 0.00 | 0.00 | 0.00 | 49 | 1022.3 |
| 20260902150826 | 85 | 42 | 3.0 | 7.0 | 0.00 | 0.00 | 0.00 | 50 | 1022.3 |
| 20260902150802 | 85 | 34 | 2.0 | 7.0 | 0.00 | 0.00 | 0.00 | 50 | 1022.3 |
| 20260902150628 | 85 | 346 | 3.0 | 7.0 | 0.00 | 0.00 | 0.00 | 49 | 1022.3 |
| 20260902150205 | 85 | 5 | 3.0 | 7.0 | 0.00 | 0.00 | 0.00 | 50 | 1022.3 |
| 20260902150024 | 85 | 352 | 2.0 | 7.0 | 0.00 | 0.00 | 0.00 | 50 | 1022.3 |
| 20260902145726 | 85 | 352 | 3.0 | 7.0 | 0.00 | 0.00 | 0.00 | 50 | 1022.3 |
| 20260902145546 | 84 | 335 | 2.0 | 7.0 | 0.00 | 0.00 | 0.00 | 50 | 1022.3 |
| 20260902145410 | 84 | 310 | 2.0 | 10.0 | 0.00 | 0.00 | 0.00 | 50 | 1022.3 |
| 20260902145339 | 84 | 310 | 2.0 | 10.0 | 0.00 | 0.00 | 0.00 | 50 | 1022.3 |
| 20260902143944 | 85 | 273 | 3.0 | 8.0 | 0.00 | 0.00 | 0.00 | 51 | 1022.4 |
| 20260902143828 | 84 | 300 | 1.0 | 6.0 | 0.00 | 0.00 | 0.00 | 52 | 1022.4 |
| 20260902143705 | 84 | 352 | 2.0 | 6.0 | 0.00 | 0.00 | 0.00 | 52 | 1022.4 |
| 20260902143604 | 84 | 343 | 3.0 | 7.0 | 0.00 | 0.00 | 0.00 | 52 | 1022.4 |
| 20260902143530 | 84 | 343 | 3.0 | 7.0 | 0.00 | 0.00 | 0.00 | 52 | 1022.4 |
| 20260902143352 | 83 | 259 | 2.0 | 7.0 | 0.00 | 0.00 | 0.00 | 53 | 1022.4 |
| 20260902143208 | 83 | 348 | 2.0 | 7.0 | 0.00 | 0.00 | 0.00 | 53 | 1022.4 |
| 20260902143131 | 83 | 348 | 2.0 | 7.0 | 0.00 | 0.00 | 0.00 | 53 | 1022.4 |
| 20260902143026 | 83 | 318 | 4.0 | 7.0 | 0.00 | 0.00 | 0.00 | 52 | 1022.3 |
| 20260902142851 | 83 | 261 | 3.0 | 7.0 | 0.00 | 0.00 | 0.00 | 53 | 1022.4 |
| 20260902142728 | 83 | 227 | 4.0 | 7.0 | 0.00 | 0.00 | 0.00 | 52 | 1022.4 |
| 20260902142321 | 83 | 262 | 5.0 | 8.0 | 0.00 | 0.00 | 0.00 | 51 | 1022.5 |
| 20260902142136 | 83 | 260 | 4.0 | 8.0 | 0.00 | 0.00 | 0.00 | 51 | 1022.5 |
| 20260902142105 | 83 | 286 | 4.0 | 8.0 | 0.00 | 0.00 | 0.00 | 51 | 1022.5 |
| 20260902141956 | 83 | 275 | 3.0 | 8.0 | 0.00 | 0.00 | 0.00 | 50 | 1022.5 |
| 20260902141820 | 84 | 291 | 4.0 | 8.0 | 0.00 | 0.00 | 0.00 | 51 | 1022.6 |
| 20260902141653 | 84 | 261 | 5.0 | 8.0 | 0.00 | 0.00 | 0.00 | 50 | 1022.4 |
| 20260902141634 | 84 | 278 | 5.0 | 8.0 | 0.00 | 0.00 | 0.00 | 50 | 1022.6 |
| 20260902141453 | 84 | 275 | 4.0 | 8.0 | 0.00 | 0.00 | 0.00 | 52 | 1022.5 |
| 20260902141034 | 83 | 329 | 1.0 | 6.0 | 0.00 | 0.00 | 0.00 | 53 | 1022.4 |
| 20260902140937 | 83 | 299 | 2.0 | 6.0 | 0.00 | 0.00 | 0.00 | 52 | 1022.6 |
| 20260902140811 | 83 | 288 | 3.0 | 7.0 | 0.00 | 0.00 | 0.00 | 51 | 1022.5 |
| 20260902140638 | 83 | 347 | 2.0 | 7.0 | 0.00 | 0.00 | 0.00 | 52 | 1022.7 |
| 20260902140628 | 83 | 338 | 2.0 | 7.0 | 0.00 | 0.00 | 0.00 | 52 | 1022.7 |
| 20260902140112 | 83 | 344 | 3.0 | 7.0 | 0.00 | 0.00 | 0.00 | 51 | 1022.6 |
| 20260902140019 | 83 | 294 | 4.0 | 7.0 | 0.00 | 0.00 | 0.00 | 51 | 1022.6 |
| 20260902135921 | 83 | 234 | 3.0 | 7.0 | 0.00 | 0.00 | 0.00 | 51 | 1022.6 |
| 20260902135750 | 83 | 322 | 3.0 | 6.0 | 0.00 | 0.00 | 0.00 | 51 | 1022.6 |
| 20260902135603 | 83 | 299 | 3.0 | 6.0 | 0.00 | 0.00 | 0.00 | 51 | 1022.6 |
| 20260902135428 | 83 | 293 | 3.0 | 11.0 | 0.00 | 0.00 | 0.00 | 51 | 1022.7 |
| 20260902135001 | 83 | 11 | 2.0 | 11.0 | 0.00 | 0.00 | 0.00 | 52 | 1022.8 |
| 20260902134916 | 83 | 11 | 2.0 | 11.0 | 0.00 | 0.00 | 0.00 | 52 | 1022.7 |
| 20260902134742 | 82 | 284 | 4.0 | 11.0 | 0.00 | 0.00 | 0.00 | 52 | 1022.8 |
| 20260902134555 | 82 | 314 | 5.0 | 11.0 | 0.00 | 0.00 | 0.00 | 51 | 1022.7 |
| 20260902134413 | 83 | 286 | 3.0 | 7.0 | 0.00 | 0.00 | 0.00 | 52 | 1022.7 |
| 20260902134236 | 82 | 302 | 4.0 | 7.0 | 0.00 | 0.00 | 0.00 | 53 | 1022.8 |
| 20260902134145 | 82 | 277 | 4.0 | 8.0 | 0.00 | 0.00 | 0.00 | 53 | 1022.9 |
| 20260902134050 | 82 | 281 | 3.0 | 8.0 | 0.00 | 0.00 | 0.00 | 52 | 1022.8 |
| 20260902133910 | 82 | 281 | 2.0 | 8.0 | 0.00 | 0.00 | 0.00 | 52 | 1022.7 |
| 20260902133727 | 82 | 242 | 2.0 | 8.0 | 0.00 | 0.00 | 0.00 | 52 | 1022.8 |
| 20260902133339 | 82 | 298 | 3.0 | 8.0 | 0.00 | 0.00 | 0.00 | 52 | 1022.9 |
| 20260902132910 | 82 | 259 | 3.0 | 8.0 | 0.00 | 0.00 | 0.00 | 51 | 1022.9 |
| 20260902132810 | 82 | 297 | 3.0 | 6.0 | 0.00 | 0.00 | 0.00 | 52 | 1022.9 |
| 20260902132637 | 82 | 307 | 3.0 | 6.0 | 0.00 | 0.00 | 0.00 | 51 | 1022.8 |
| 20260902132242 | 83 | 327 | 2.0 | 6.0 | 0.00 | 0.00 | 0.00 | 52 | 1022.8 |
| 20260902132107 | 82 | 9 | 4.0 | 6.0 | 0.00 | 0.00 | 0.00 | 52 | 1022.8 |
| 20260902131913 | 82 | 309 | 4.0 | 6.0 | 0.00 | 0.00 | 0.00 | 52 | 1022.9 |
| 20260902131517 | 82 | 283 | 3.0 | 6.0 | 0.00 | 0.00 | 0.00 | 53 | 1022.9 |
| 20260902130952 | 82 | 296 | 2.0 | 5.0 | 0.00 | 0.00 | 0.00 | 53 | 1022.8 |
| 20260902130924 | 82 | 319 | 2.0 | 5.0 | 0.00 | 0.00 | 0.00 | 53 | 1022.9 |
| 20260902130404 | 81 | 54 | 3.0 | 6.0 | 0.00 | 0.00 | 0.00 | 52 | 1022.9 |
| 20260902130331 | 81 | 143 | 3.0 | 6.0 | 0.00 | 0.00 | 0.00 | 52 | 1023.0 |
| 20260902130225 | 81 | 146 | 2.0 | 6.0 | 0.00 | 0.00 | 0.00 | 52 | 1023.0 |
| 20260902130038 | 81 | 120 | 1.0 | 6.0 | 0.00 | 0.00 | 0.00 | 53 | 1023.0 |
| 20260902125921 | 81 | 289 | 2.0 | 6.0 | 0.00 | 0.00 | 0.00 | 53 | 1023.0 |
| 20260902125850 | 81 | 271 | 2.0 | 6.0 | 0.00 | 0.00 | 0.00 | 53 | 1023.1 |
| 20260902125707 | 81 | 310 | 3.0 | 6.0 | 0.00 | 0.00 | 0.00 | 53 | 1023.1 |
| 20260902125244 | 81 | 255 | 2.0 | 5.0 | 0.00 | 0.00 | 0.00 | 53 | 1023.2 |
| 20260902125128 | 81 | 275 | 2.0 | 5.0 | 0.00 | 0.00 | 0.00 | 53 | 1023.1 |
| 20260902124941 | 81 | 336 | 3.0 | 5.0 | 0.00 | 0.00 | 0.00 | 52 | 1023.1 |
| 20260902124833 | 81 | 352 | 2.0 | 7.0 | 0.00 | 0.00 | 0.00 | 52 | 1023.2 |
| 20260902124757 | 81 | 19 | 2.0 | 7.0 | 0.00 | 0.00 | 0.00 | 52 | 1023.2 |
| 20260902124619 | 81 | 53 | 3.0 | 7.0 | 0.00 | 0.00 | 0.00 | 52 | 1023.1 |
| 20260902124429 | 81 | 85 | 2.0 | 7.0 | 0.00 | 0.00 | 0.00 | 53 | 1023.1 |
| 20260902124400 | 81 | 60 | 3.0 | 7.0 | 0.00 | 0.00 | 0.00 | 53 | 1023.1 |
| 20260902124239 | 81 | 184 | 4.0 | 7.0 | 0.00 | 0.00 | 0.00 | 51 | 1023.0 |
| 20260902124049 | 81 | 92 | 3.0 | 7.0 | 0.00 | 0.00 | 0.00 | 52 | 1023.1 |
| 20260902123930 | 81 | 69 | 1.0 | 5.0 | 0.00 | 0.00 | 0.00 | 53 | 1023.1 |
| 20260902123902 | 81 | 146 | 1.0 | 4.0 | 0.00 | 0.00 | 0.00 | 52 | 1023.0 |
| 20260902122747 | 80 | 292 | 1.0 | 5.0 | 0.00 | 0.00 | 0.00 | 54 | 1023.0 |
| 20260902122600 | 80 | 292 | 2.0 | 5.0 | 0.00 | 0.00 | 0.00 | 53 | 1023.1 |
| 20260902122448 | 80 | 272 | 2.0 | 8.0 | 0.00 | 0.00 | 0.00 | 53 | 1023.2 |
| 20260902122424 | 80 | 272 | 2.0 | 8.0 | 0.00 | 0.00 | 0.00 | 53 | 1023.1 |
| 20260902122256 | 80 | 204 | 3.0 | 8.0 | 0.00 | 0.00 | 0.00 | 54 | 1023.1 |
| 20260902122106 | 80 | 157 | 1.0 | 8.0 | 0.00 | 0.00 | 0.00 | 54 | 1023.1 |
| 20260902122036 | 80 | 113 | 1.0 | 8.0 | 0.00 | 0.00 | 0.00 | 53 | 1023.1 |
| 20260902121934 | 80 | 123 | 2.0 | 8.0 | 0.00 | 0.00 | 0.00 | 54 | 1023.2 |
| 20260902121750 | 80 | 117 | 3.0 | 8.0 | 0.00 | 0.00 | 0.00 | 54 | 1023.2 |
| 20260902121633 | 80 | 46 | 3.0 | 6.0 | 0.00 | 0.00 | 0.00 | 53 | 1023.2 |
| 20260902121604 | 80 | 53 | 3.0 | 6.0 | 0.00 | 0.00 | 0.00 | 53 | 1023.2 |
| 20260902121420 | 80 | 100 | 1.0 | 10.0 | 0.00 | 0.00 | 0.00 | 54 | 1023.2 |
| 20260902121240 | 80 | 153 | 3.0 | 10.0 | 0.00 | 0.00 | 0.00 | 54 | 1023.2 |
| 20260902120457 | 79 | 178 | 2.0 | 10.0 | 0.00 | 0.00 | 0.00 | 55 | 1023.3 |
| 20260902120340 | 79 | 196 | 6.0 | 10.0 | 0.00 | 0.00 | 0.00 | 54 | 1023.3 |
| 20260902120313 | 79 | 194 | 6.0 | 10.0 | 0.00 | 0.00 | 0.00 | 54 | 1023.4 |
| 20260902120132 | 79 | 111 | 6.0 | 9.0 | 0.00 | 0.00 | 0.00 | 53 | 1023.4 |
| 20260902115939 | 80 | 174 | 3.0 | 9.0 | 0.00 | 0.00 | 0.00 | 53 | 1023.3 |
| 20260902115153 | 80 | 96 | 6.0 | 9.0 | 0.00 | 0.00 | 0.00 | 53 | 1023.4 |
| 20260902115039 | 80 | 76 | 4.0 | 9.0 | 0.00 | 0.00 | 0.00 | 54 | 1023.5 |
| 20260902115005 | 80 | 74 | 4.0 | 9.0 | 0.00 | 0.00 | 0.00 | 54 | 1023.4 |
| 20260902114831 | 79 | 5 | 1.0 | 4.0 | 0.00 | 0.00 | 0.00 | 55 | 1023.4 |
| 20260902114433 | 79 | 5 | 3.0 | 4.0 | 0.00 | 0.00 | 0.00 | 54 | 1023.4 |
| 20260902114319 | 79 | 350 | 2.0 | 4.0 | 0.00 | 0.00 | 0.00 | 56 | 1023.4 |
| 20260902114129 | 79 | 327 | 0.0 | 8.0 | 0.00 | 0.00 | 0.00 | 55 | 1023.3 |
| 20260902114028 | 79 | 287 | 1.0 | 8.0 | 0.00 | 0.00 | 0.00 | 55 | 1023.3 |
| 20260902113611 | 78 | 5 | 2.0 | 8.0 | 0.00 | 0.00 | 0.00 | 56 | 1023.4 |
| 20260902113418 | 78 | 19 | 2.0 | 9.0 | 0.00 | 0.00 | 0.00 | 56 | 1023.4 |
| 20260902113249 | 78 | 59 | 4.0 | 9.0 | 0.00 | 0.00 | 0.00 | 56 | 1023.4 |
| 20260902113051 | 78 | 49 | 4.0 | 9.0 | 0.00 | 0.00 | 0.00 | 56 | 1023.4 |
| 20260902112959 | 78 | 50 | 4.0 | 9.0 | 0.00 | 0.00 | 0.00 | 56 | 1023.4 |
| 20260902112908 | 78 | 60 | 3.0 | 9.0 | 0.00 | 0.00 | 0.00 | 56 | 1023.4 |
| 20260902112714 | 78 | 76 | 6.0 | 9.0 | 0.00 | 0.00 | 0.00 | 56 | 1023.4 |
| 20260902112532 | 78 | 49 | 5.0 | 8.0 | 0.00 | 0.00 | 0.00 | 56 | 1023.4 |
| 20260902112136 | 78 | 57 | 1.0 | 8.0 | 0.00 | 0.00 | 0.00 | 57 | 1023.5 |
| 20260902111949 | 78 | 299 | 3.0 | 8.0 | 0.00 | 0.00 | 0.00 | 56 | 1023.5 |
| 20260902111605 | 78 | 286 | 3.0 | 8.0 | 0.00 | 0.00 | 0.00 | 56 | 1023.5 |
| 20260902111415 | 78 | 251 | 1.0 | 8.0 | 0.00 | 0.00 | 0.00 | 57 | 1023.5 |
| 20260902111234 | 78 | 140 | 2.0 | 8.0 | 0.00 | 0.00 | 0.00 | 57 | 1023.6 |
| 20260902111053 | 77 | 92 | 3.0 | 8.0 | 0.00 | 0.00 | 0.00 | 57 | 1023.6 |
| 20260902110854 | 77 | 348 | 4.0 | 9.0 | 0.00 | 0.00 | 0.00 | 58 | 1023.6 |
| 20260902110456 | 77 | 27 | 2.0 | 9.0 | 0.00 | 0.00 | 0.00 | 58 | 1023.6 |
| 20260902110306 | 77 | 327 | 4.0 | 9.0 | 0.00 | 0.00 | 0.00 | 58 | 1023.7 |
| 20260902110123 | 77 | 350 | 5.0 | 9.0 | 0.00 | 0.00 | 0.00 | 58 | 1023.7 |
| 20260902105951 | 77 | 352 | 5.0 | 10.0 | 0.00 | 0.00 | 0.00 | 59 | 1023.8 |
| 20260902105802 | 77 | 273 | 2.0 | 10.0 | 0.00 | 0.00 | 0.00 | 58 | 1023.7 |
| 20260902105711 | 77 | 260 | 3.0 | 10.0 | 0.00 | 0.00 | 0.00 | 58 | 1023.6 |
| 20260902105621 | 77 | 332 | 3.0 | 10.0 | 0.00 | 0.00 | 0.00 | 60 | 1023.8 |
| 20260902105437 | 77 | 304 | 5.0 | 10.0 | 0.00 | 0.00 | 0.00 | 60 | 1023.6 |
| 20260902105306 | 77 | 10 | 4.0 | 10.0 | 0.00 | 0.00 | 0.00 | 59 | 1023.7 |
| 20260902104523 | 77 | 281 | 3.0 | 10.0 | 0.00 | 0.00 | 0.00 | 59 | 1023.7 |
| 20260902103719 | 77 | 350 | 2.0 | 10.0 | 0.00 | 0.00 | 0.00 | 61 | 1023.8 |
| 20260902103539 | 76 | 260 | 2.0 | 10.0 | 0.00 | 0.00 | 0.00 | 61 | 1023.8 |
| 20260902103533 | 76 | 258 | 3.0 | 10.0 | 0.00 | 0.00 | 0.00 | 61 | 1023.8 |
| 20260902103406 | 76 | 352 | 4.0 | 10.0 | 0.00 | 0.00 | 0.00 | 60 | 1023.8 |
| 20260902103208 | 76 | 39 | 2.0 | 7.0 | 0.00 | 0.00 | 0.00 | 60 | 1023.7 |
| 20260902103129 | 76 | 74 | 4.0 | 8.0 | 0.00 | 0.00 | 0.00 | 61 | 1023.8 |
| 20260902103024 | 76 | 76 | 4.0 | 8.0 | 0.00 | 0.00 | 0.00 | 59 | 1023.7 |
| 20260902102830 | 76 | 54 | 2.0 | 8.0 | 0.00 | 0.00 | 0.00 | 62 | 1023.7 |
| 20260902102704 | 76 | 55 | 2.0 | 8.0 | 0.00 | 0.00 | 0.00 | 61 | 1023.8 |
| 20260902102307 | 76 | 44 | 4.0 | 9.0 | 0.00 | 0.00 | 0.00 | 62 | 1023.8 |
| 20260902102103 | 76 | 43 | 3.0 | 9.0 | 0.00 | 0.00 | 0.00 | 62 | 1023.8 |
| 20260902102015 | 75 | 61 | 2.0 | 9.0 | 0.00 | 0.00 | 0.00 | 62 | 1023.8 |
| 20260902101911 | 75 | 45 | 3.0 | 9.0 | 0.00 | 0.00 | 0.00 | 64 | 1023.9 |
| 20260902101719 | 75 | 63 | 5.0 | 9.0 | 0.00 | 0.00 | 0.00 | 63 | 1023.9 |
| 20260902101554 | 75 | 52 | 4.0 | 9.0 | 0.00 | 0.00 | 0.00 | 62 | 1023.8 |
| 20260902101526 | 75 | 62 | 4.0 | 9.0 | 0.00 | 0.00 | 0.00 | 62 | 1023.8 |
| 20260902101348 | 75 | 44 | 5.0 | 8.0 | 0.00 | 0.00 | 0.00 | 63 | 1023.8 |
| 20260902101154 | 75 | 71 | 4.0 | 8.0 | 0.00 | 0.00 | 0.00 | 64 | 1023.8 |
| 20260902101125 | 75 | 53 | 4.0 | 8.0 | 0.00 | 0.00 | 0.00 | 64 | 1023.8 |
| 20260902101005 | 75 | 77 | 5.0 | 8.0 | 0.00 | 0.00 | 0.00 | 64 | 1023.8 |
| 20260902100808 | 75 | 66 | 5.0 | 8.0 | 0.00 | 0.00 | 0.00 | 63 | 1023.8 |
| 20260902100651 | 75 | 80 | 2.0 | 7.0 | 0.00 | 0.00 | 0.00 | 64 | 1023.8 |
| 20260902100618 | 75 | 41 | 2.0 | 6.0 | 0.00 | 0.00 | 0.00 | 65 | 1023.8 |
| 20260902100452 | 75 | 56 | 2.0 | 5.0 | 0.00 | 0.00 | 0.00 | 65 | 1023.8 |
| 20260902100257 | 75 | 48 | 2.0 | 5.0 | 0.00 | 0.00 | 0.00 | 66 | 1023.7 |
| 20260902100231 | 75 | 85 | 2.0 | 5.0 | 0.00 | 0.00 | 0.00 | 65 | 1023.8 |
| 20260902100110 | 74 | 323 | 2.0 | 4.0 | 0.00 | 0.00 | 0.00 | 65 | 1023.6 |
| 20260902095610 | 74 | 308 | 2.0 | 4.0 | 0.00 | 0.00 | 0.00 | 67 | 1023.6 |
| 20260902095541 | 74 | 307 | 2.0 | 4.0 | 0.00 | 0.00 | 0.00 | 67 | 1023.8 |
| 20260902095403 | 74 | 281 | 1.0 | 4.0 | 0.00 | 0.00 | 0.00 | 67 | 1023.8 |
| 20260902095223 | 74 | 352 | 0.0 | 4.0 | 0.00 | 0.00 | 0.00 | 67 | 1023.8 |
| 20260902095205 | 74 | 352 | 1.0 | 4.0 | 0.00 | 0.00 | 0.00 | 67 | 1023.8 |
| 20260902095108 | 74 | 352 | 2.0 | 4.0 | 0.00 | 0.00 | 0.00 | 67 | 1023.8 |
| 20260902094937 | 74 | 352 | 2.0 | 5.0 | 0.00 | 0.00 | 0.00 | 68 | 1023.9 |
| 20260902094829 | 74 | 352 | 1.0 | 5.0 | 0.00 | 0.00 | 0.00 | 68 | 1023.8 |
| 20260902094756 | 74 | 42 | 1.0 | 5.0 | 0.00 | 0.00 | 0.00 | 69 | 1023.8 |
| 20260902094613 | 74 | 83 | 2.0 | 6.0 | 0.00 | 0.00 | 0.00 | 69 | 1023.8 |
| 20260902094137 | 73 | 91 | 2.0 | 6.0 | 0.00 | 0.00 | 0.00 | 69 | 1023.7 |
| 20260902094027 | 73 | 85 | 2.0 | 6.0 | 0.00 | 0.00 | 0.00 | 68 | 1023.7 |
| 20260902093520 | 73 | 83 | 1.0 | 6.0 | 0.00 | 0.00 | 0.00 | 70 | 1023.7 |
| 20260902093447 | 73 | 55 | 3.0 | 6.0 | 0.00 | 0.00 | 0.00 | 70 | 1023.8 |
| 20260902093325 | 73 | 94 | 2.0 | 6.0 | 0.00 | 0.00 | 0.00 | 70 | 1023.8 |
| 20260902093127 | 73 | 22 | 2.0 | 6.0 | 0.00 | 0.00 | 0.00 | 71 | 1023.8 |
| 20260902093054 | 73 | 22 | 1.0 | 6.0 | 0.00 | 0.00 | 0.00 | 70 | 1023.7 |
| 20260902092938 | 72 | 74 | 2.0 | 6.0 | 0.00 | 0.00 | 0.00 | 70 | 1023.7 |
| 20260902092740 | 72 | 79 | 0.0 | 6.0 | 0.00 | 0.00 | 0.00 | 71 | 1023.8 |
| 20260902092648 | 72 | 98 | 2.0 | 6.0 | 0.00 | 0.00 | 0.00 | 70 | 1023.8 |
| 20260902092626 | 72 | 98 | 2.0 | 6.0 | 0.00 | 0.00 | 0.00 | 70 | 1023.8 |
| 20260902092447 | 72 | 88 | 3.0 | 6.0 | 0.00 | 0.00 | 0.00 | 70 | 1023.7 |
| 20260902092256 | 72 | 87 | 3.0 | 6.0 | 0.00 | 0.00 | 0.00 | 71 | 1023.8 |
| 20260902092244 | 72 | 69 | 3.0 | 6.0 | 0.00 | 0.00 | 0.00 | 71 | 1023.8 |
| 20260902092108 | 72 | 94 | 3.0 | 6.0 | 0.00 | 0.00 | 0.00 | 71 | 1023.6 |
| 20260902091912 | 72 | 82 | 2.0 | 5.0 | 0.00 | 0.00 | 0.00 | 72 | 1023.6 |
| 20260902091820 | 72 | 130 | 2.0 | 6.0 | 0.00 | 0.00 | 0.00 | 72 | 1023.6 |
| 20260902091722 | 72 | 108 | 2.0 | 6.0 | 0.00 | 0.00 | 0.00 | 72 | 1023.6 |
| 20260902091522 | 71 | 127 | 3.0 | 6.0 | 0.00 | 0.00 | 0.00 | 72 | 1023.6 |
| 20260902091334 | 71 | 71 | 4.0 | 6.0 | 0.00 | 0.00 | 0.00 | 72 | 1023.6 |
| 20260902091158 | 71 | 68 | 3.0 | 6.0 | 0.00 | 0.00 | 0.00 | 72 | 1023.7 |
| 20260902090959 | 71 | 98 | 1.0 | 6.0 | 0.00 | 0.00 | 0.00 | 73 | 1023.5 |
| 20260902090909 | 71 | 56 | 2.0 | 5.0 | 0.00 | 0.00 | 0.00 | 73 | 1023.6 |
| 20260902090823 | 71 | 103 | 2.0 | 5.0 | 0.00 | 0.00 | 0.00 | 72 | 1023.6 |
| 20260902090627 | 71 | 65 | 3.0 | 5.0 | 0.00 | 0.00 | 0.00 | 73 | 1023.5 |
| 20260902090228 | 71 | 82 | 0.0 | 3.0 | 0.00 | 0.00 | 0.00 | 74 | 1023.6 |
| 20260902090111 | 70 | 32 | 0.0 | 3.0 | 0.00 | 0.00 | 0.00 | 75 | 1023.6 |
| 20260902084944 | 70 | 32 | 2.0 | 4.0 | 0.00 | 0.00 | 0.00 | 74 | 1023.5 |
| 20260902084818 | 70 | 46 | 2.0 | 4.0 | 0.00 | 0.00 | 0.00 | 75 | 1023.5 |
| 20260902084641 | 70 | 105 | 2.0 | 4.0 | 0.00 | 0.00 | 0.00 | 75 | 1023.5 |
| 20260902084450 | 69 | 130 | 1.0 | 4.0 | 0.00 | 0.00 | 0.00 | 76 | 1023.5 |
| 20260902084402 | 69 | 54 | 0.0 | 4.0 | 0.00 | 0.00 | 0.00 | 76 | 1023.5 |
| 20260902084320 | 69 | 54 | 0.0 | 4.0 | 0.00 | 0.00 | 0.00 | 76 | 1023.5 |
| 20260902084205 | 69 | 54 | 3.0 | 4.0 | 0.00 | 0.00 | 0.00 | 76 | 1023.5 |
| 20260902084015 | 69 | 54 | 2.0 | 4.0 | 0.00 | 0.00 | 0.00 | 76 | 1023.5 |
| 20260902083852 | 69 | 83 | 2.0 | 3.0 | 0.00 | 0.00 | 0.00 | 77 | 1023.5 |
| 20260902083655 | 69 | 58 | 1.0 | 4.0 | 0.00 | 0.00 | 0.00 | 77 | 1023.4 |
| 20260902083555 | 69 | 56 | 0.0 | 4.0 | 0.00 | 0.00 | 0.00 | 77 | 1023.5 |
| 20260902083508 | 69 | 115 | 1.0 | 4.0 | 0.00 | 0.00 | 0.00 | 77 | 1023.5 |
| 20260902083333 | 69 | 69 | 2.0 | 4.0 | 0.00 | 0.00 | 0.00 | 77 | 1023.5 |
| 20260902083150 | 69 | 78 | 2.0 | 4.0 | 0.00 | 0.00 | 0.00 | 77 | 1023.5 |
| 20260902083020 | 69 | 53 | 1.0 | 4.0 | 0.00 | 0.00 | 0.00 | 78 | 1023.5 |
| 20260902082844 | 68 | 46 | 1.0 | 3.0 | 0.00 | 0.00 | 0.00 | 78 | 1023.5 |
| 20260902082755 | 68 | 47 | 0.0 | 3.0 | 0.00 | 0.00 | 0.00 | 78 | 1023.4 |
| 20260902082712 | 68 | 52 | 1.0 | 3.0 | 0.00 | 0.00 | 0.00 | 78 | 1023.5 |
| 20260902082536 | 68 | 52 | 1.0 | 3.0 | 0.00 | 0.00 | 0.00 | 79 | 1023.3 |
| 20260902082413 | 68 | 56 | 1.0 | 4.0 | 0.00 | 0.00 | 0.00 | 79 | 1023.3 |
| 20260902082032 | 68 | 57 | 0.0 | 4.0 | 0.00 | 0.00 | 0.00 | 80 | 1023.3 |
| 20260902081606 | 67 | 57 | 1.0 | 4.0 | 0.00 | 0.00 | 0.00 | 80 | 1023.2 |
| 20260902081537 | 67 | 57 | 1.0 | 4.0 | 0.00 | 0.00 | 0.00 | 81 | 1023.3 |
| 20260902081356 | 67 | 57 | 2.0 | 4.0 | 0.00 | 0.00 | 0.00 | 81 | 1023.3 |
| 20260902081217 | 67 | 55 | 2.0 | 4.0 | 0.00 | 0.00 | 0.00 | 82 | 1023.3 |
| 20260902081109 | 67 | 55 | 1.0 | 4.0 | 0.00 | 0.00 | 0.00 | 83 | 1023.3 |
| 20260902080922 | 67 | 55 | 2.0 | 4.0 | 0.00 | 0.00 | 0.00 | 83 | 1023.3 |
| 20260902080835 | 67 | 55 | 1.0 | 4.0 | 0.00 | 0.00 | 0.00 | 83 | 1023.3 |
| 20260902080421 | 66 | 55 | 1.0 | 4.0 | 0.00 | 0.00 | 0.00 | 84 | 1023.3 |
| 20260902080233 | 66 | 55 | 1.0 | 4.0 | 0.00 | 0.00 | 0.00 | 84 | 1023.3 |
| 20260902080225 | 66 | 55 | 1.0 | 4.0 | 0.00 | 0.00 | 0.00 | 84 | 1023.3 |
| 20260902080104 | 66 | 108 | 2.0 | 4.0 | 0.00 | 0.00 | 0.00 | 84 | 1023.2 |
| 20260902075600 | 65 | 77 | 0.0 | 4.0 | 0.00 | 0.00 | 0.00 | 86 | 1023.2 |
| 20260902075522 | 65 | 64 | 1.0 | 4.0 | 0.00 | 0.00 | 0.00 | 86 | 1023.1 |
| 20260902075408 | 65 | 64 | 2.0 | 4.0 | 0.00 | 0.00 | 0.00 | 87 | 1023.1 |
| 20260902075214 | 65 | 54 | 0.0 | 4.0 | 0.00 | 0.00 | 0.00 | 89 | 1023.2 |
| 20260902075150 | 65 | 51 | 0.0 | 3.0 | 0.00 | 0.00 | 0.00 | 89 | 1023.2 |
| 20260902074738 | 65 | 292 | 0.0 | 2.0 | 0.00 | 0.00 | 0.00 | 90 | 1023.2 |
| 20260902074043 | 64 | 292 | 0.0 | 2.0 | 0.00 | 0.00 | 0.00 | 91 | 1023.1 |
| 20260902073657 | 64 | 292 | 1.0 | 2.0 | 0.00 | 0.00 | 0.00 | 92 | 1023.2 |
| 20260902073556 | 64 | 292 | 1.0 | 2.0 | 0.00 | 0.00 | 0.00 | 92 | 1023.2 |
| 20260902073332 | 64 | 292 | 1.0 | 3.0 | 0.00 | 0.00 | 0.00 | 93 | 1023.3 |
| 20260902073235 | 63 | 292 | 1.0 | 3.0 | 0.00 | 0.00 | 0.00 | 93 | 1023.3 |
| 20260902073209 | 63 | 292 | 0.0 | 3.0 | 0.00 | 0.00 | 0.00 | 93 | 1023.2 |
| 20260902073036 | 63 | 292 | 1.0 | 3.0 | 0.00 | 0.00 | 0.00 | 94 | 1023.2 |
| 20260902072915 | 63 | 292 | 0.0 | 3.0 | 0.00 | 0.00 | 0.00 | 94 | 1023.3 |
| 20260902071814 | 62 | 292 | 1.0 | 2.0 | 0.00 | 0.00 | 0.00 | 95 | 1023.3 |
| 20260902071759 | 62 | 292 | 0.0 | 2.0 | 0.00 | 0.00 | 0.00 | 95 | 1023.1 |
| 20260902071635 | 62 | 292 | 1.0 | 2.0 | 0.00 | 0.00 | 0.00 | 95 | 1023.2 |
| 20260902071441 | 62 | 292 | 0.0 | 2.0 | 0.00 | 0.00 | 0.00 | 95 | 1023.3 |
| 20260902071412 | 62 | 292 | 0.0 | 2.0 | 0.00 | 0.00 | 0.00 | 96 | 1023.3 |
| 20260902071317 | 62 | 292 | 0.0 | 0.0 | 0.00 | 0.00 | 0.00 | 96 | 1023.2 |
| 20260902071126 | 62 | 292 | 0.0 | 0.0 | 0.00 | 0.00 | 0.00 | 96 | 1023.2 |
| 20260902071035 | 62 | 292 | 0.0 | 0.0 | 0.00 | 0.00 | 0.00 | 96 | 1023.2 |
| 20260902071010 | 62 | 292 | 0.0 | 0.0 | 0.00 | 0.00 | 0.00 | 96 | 1023.2 |
| 20260902070845 | 62 | 292 | 0.0 | 0.0 | 0.00 | 0.00 | 0.00 | 97 | 1023.1 |
| 20260902070648 | 61 | 292 | 0.0 | 0.0 | 0.00 | 0.00 | 0.00 | 97 | 1023.1 |
| 20260902070322 | 61 | 292 | 0.0 | 0.0 | 0.00 | 0.00 | 0.00 | 97 | 1023.1 |
| 20260902070131 | 61 | 292 | 0.0 | 0.0 | 0.00 | 0.00 | 0.00 | 97 | 1023.1 |
| 20260902070109 | 61 | 292 | 0.0 | 0.0 | 0.00 | 0.00 | 0.00 | 97 | 1023.1 |
| 20260902070038 | 61 | 292 | 0.0 | 0.0 | 0.00 | 0.00 | 0.00 | 97 | 1023.0 |
| 20260902065836 | 61 | 292 | 0.0 | 0.0 | 0.00 | 0.00 | 0.00 | 97 | 1023.0 |
| 20260902065531 | 60 | 292 | 0.0 | 0.0 | 0.00 | 0.00 | 0.00 | 97 | 1023.1 |
| 20260902065035 | 60 | 292 | 0.0 | 0.0 | 0.00 | 0.00 | 0.00 | 97 | 1023.0 |
| 20260902065006 | 60 | 292 | 0.0 | 0.0 | 0.00 | 0.00 | 0.00 | 97 | 1023.0 |
| 20260902064936 | 60 | 292 | 0.0 | 0.0 | 0.00 | 0.00 | 0.00 | 97 | 1023.1 |
| 20260902064712 | 60 | 292 | 0.0 | 0.0 | 0.00 | 0.00 | 0.00 | 97 | 1023.0 |
| 20260902064602 | 59 | 292 | 0.0 | 0.0 | 0.00 | 0.00 | 0.00 | 97 | 1023.0 |
| 20260902064512 | 59 | 292 | 0.0 | 0.0 | 0.00 | 0.00 | 0.00 | 97 | 1023.1 |
| 20260902064128 | 59 | 292 | 0.0 | 0.0 | 0.00 | 0.00 | 0.00 | 97 | 1023.1 |
| 20260902064102 | 59 | 292 | 0.0 | 0.0 | 0.00 | 0.00 | 0.00 | 97 | 1023.0 |
| 20260902063940 | 59 | 292 | 0.0 | 0.0 | 0.00 | 0.00 | 0.00 | 97 | 1023.0 |
| 20260902063832 | 58 | 292 | 0.0 | 0.0 | 0.00 | 0.00 | 0.00 | 97 | 1022.9 |
| 20260902063503 | 58 | 292 | 0.0 | 0.0 | 0.00 | 0.00 | 0.00 | 96 | 1023.0 |
| 20260902063308 | 58 | 292 | 0.0 | 0.0 | 0.00 | 0.00 | 0.00 | 96 | 1022.9 |
| 20260902063248 | 58 | 292 | 0.0 | 0.0 | 0.00 | 0.00 | 0.00 | 96 | 1022.9 |
| 20260902062340 | 67 | 273 | 1.0 | 3.0 | 0.00 | 0.00 | 0.00 | 82 | 1022.0 |
| 20260902062245 | 58 | 292 | 0.0 | 0.0 | 0.00 | 0.00 | 0.00 | 96 | 1022.9 |
| 20260902062221 | 58 | 292 | 0.0 | 0.0 | 0.00 | 0.00 | 0.00 | 96 | 1023.0 |
| 20260902062112 | 58 | 292 | 0.0 | 0.0 | 0.00 | 0.00 | 0.00 | 96 | 1022.9 |
| 20260902061944 | 58 | 292 | 0.0 | 0.0 | 0.00 | 0.00 | 0.00 | 96 | 1022.9 |
| 20260902061930 | 58 | 292 | 0.0 | 0.0 | 0.00 | 0.00 | 0.00 | 96 | 1022.9 |
| 20260902061840 | 58 | 292 | 0.0 | 0.0 | 0.00 | 0.00 | 0.00 | 96 | 1022.9 |
| 20260902061659 | 58 | 292 | 0.0 | 0.0 | 0.00 | 0.00 | 0.00 | 96 | 1022.9 |
| 20260902061628 | 58 | 292 | 0.0 | 0.0 | 0.00 | 0.00 | 0.00 | 96 | 1022.9 |
| 20260902060911 | 58 | 292 | 0.0 | 0.0 | 0.00 | 0.00 | 0.00 | 96 | 1022.9 |
| 20260902060839 | 58 | 292 | 0.0 | 0.0 | 0.00 | 0.00 | 0.00 | 96 | 1022.9 |
| 20260902060655 | 58 | 292 | 0.0 | 0.0 | 0.00 | 0.00 | 0.00 | 96 | 1022.8 |
| 20260902060620 | 58 | 292 | 0.0 | 0.0 | 0.00 | 0.00 | 0.00 | 96 | 1022.9 |
| 20260902060309 | 58 | 292 | 0.0 | 0.0 | 0.00 | 0.00 | 0.00 | 96 | 1022.8 |
| 20260902060135 | 57 | 292 | 0.0 | 0.0 | 0.00 | 0.00 | 0.00 | 96 | 1022.8 |
| 20260902060121 | 57 | 292 | 0.0 | 0.0 | 0.00 | 0.00 | 0.00 | 96 | 1022.8 |
| 20260902060048 | 57 | 292 | 0.0 | 0.0 | 0.00 | 0.00 | 0.00 | 96 | 1022.8 |
| 20260902060006 | 57 | 292 | 0.0 | 0.0 | 0.00 | 0.00 | 0.00 | 96 | 1022.8 |
| 20260902055400 | 57 | 292 | 0.0 | 0.0 | 0.00 | 0.00 | 0.00 | 96 | 1022.8 |
| 20260902055217 | 57 | 292 | 0.0 | 0.0 | 0.00 | 0.00 | 0.00 | 95 | 1022.7 |
| 20260902054909 | 57 | 292 | 0.0 | 0.0 | 0.00 | 0.00 | 0.00 | 96 | 1022.7 |
| 20260902054426 | 57 | 292 | 0.0 | 0.0 | 0.00 | 0.00 | 0.00 | 95 | 1022.6 |
| 20260902054034 | 58 | 292 | 0.0 | 0.0 | 0.00 | 0.00 | 0.00 | 95 | 1022.6 |
| 20260902053859 | 67 | 248 | 0.0 | 1.0 | 0.00 | 0.00 | 0.00 | 81 | 1021.9 |
| 20260902053817 | 57 | 292 | 0.0 | 0.0 | 0.00 | 0.00 | 0.00 | 95 | 1022.7 |
| 20260902053747 | 58 | 292 | 0.0 | 0.0 | 0.00 | 0.00 | 0.00 | 95 | 1022.6 |
| 20260902053707 | 57 | 292 | 0.0 | 0.0 | 0.00 | 0.00 | 0.00 | 95 | 1022.6 |
| 20260902053459 | 58 | 292 | 0.0 | 0.0 | 0.00 | 0.00 | 0.00 | 95 | 1022.6 |
| 20260902053428 | 58 | 292 | 0.0 | 0.0 | 0.00 | 0.00 | 0.00 | 95 | 1022.7 |
| 20260902053154 | 67 | 248 | 0.0 | 3.0 | 0.00 | 0.00 | 0.00 | 81 | 1021.9 |
| 20260902053031 | 57 | 292 | 0.0 | 0.0 | 0.00 | 0.00 | 0.00 | 95 | 1022.6 |
| 20260902052812 | 58 | 292 | 0.0 | 0.0 | 0.00 | 0.00 | 0.00 | 95 | 1022.6 |
| 20260902052737 | 57 | 292 | 0.0 | 0.0 | 0.00 | 0.00 | 0.00 | 95 | 1022.6 |
| 20260902052718 | 68 | 240 | 2.0 | 3.0 | 0.00 | 0.00 | 0.00 | 80 | 1021.9 |
| 20260902052714 | 68 | 236 | 2.0 | 3.0 | 0.00 | 0.00 | 0.00 | 80 | 1021.9 |
| 20260902052617 | 58 | 292 | 0.0 | 0.0 | 0.00 | 0.00 | 0.00 | 95 | 1022.6 |
| 20260902052451 | 58 | 292 | 0.0 | 0.0 | 0.00 | 0.00 | 0.00 | 95 | 1022.6 |
| 20260902052320 | 68 | 271 | 1.0 | 4.0 | 0.00 | 0.00 | 0.00 | 80 | 1021.9 |
| 20260902052207 | 58 | 292 | 0.0 | 0.0 | 0.00 | 0.00 | 0.00 | 95 | 1022.5 |
| 20260902052049 | 58 | 292 | 0.0 | 0.0 | 0.00 | 0.00 | 0.00 | 95 | 1022.5 |
| 20260902051911 | 58 | 292 | 0.0 | 0.0 | 0.00 | 0.00 | 0.00 | 95 | 1022.5 |
| 20260902051851 | 58 | 292 | 0.0 | 0.0 | 0.00 | 0.00 | 0.00 | 95 | 1022.6 |
| 20260902051804 | 58 | 292 | 0.0 | 0.0 | 0.00 | 0.00 | 0.00 | 95 | 1022.5 |
| 20260902051704 | 58 | 292 | 0.0 | 0.0 | 0.00 | 0.00 | 0.00 | 95 | 1022.5 |
| 20260902051527 | 58 | 292 | 0.0 | 0.0 | 0.00 | 0.00 | 0.00 | 95 | 1022.5 |
| 20260902051513 | 58 | 292 | 0.0 | 0.0 | 0.00 | 0.00 | 0.00 | 95 | 1022.4 |
| 20260902051001 | 58 | 292 | 0.0 | 0.0 | 0.00 | 0.00 | 0.00 | 95 | 1022.4 |
| 20260902050708 | 68 | 286 | 2.0 | 4.0 | 0.00 | 0.00 | 0.00 | 78 | 1022.0 |
| 20260902050700 | 69 | 275 | 2.0 | 4.0 | 0.00 | 0.00 | 0.00 | 78 | 1021.8 |
| 20260902050633 | 69 | 255 | 2.0 | 4.0 | 0.00 | 0.00 | 0.00 | 78 | 1021.8 |
| 20260902050612 | 58 | 292 | 0.0 | 0.0 | 0.00 | 0.00 | 0.00 | 95 | 1022.3 |
| 20260902050557 | 69 | 280 | 2.0 | 3.0 | 0.00 | 0.00 | 0.00 | 77 | 1021.8 |
| 20260902050553 | 69 | 257 | 2.0 | 3.0 | 0.00 | 0.00 | 0.00 | 77 | 1021.8 |
| 20260902050442 | 58 | 292 | 0.0 | 0.0 | 0.00 | 0.00 | 0.00 | 95 | 1022.4 |
| 20260902050345 | 69 | 247 | 0.0 | 2.0 | 0.00 | 0.00 | 0.00 | 76 | 1021.7 |
| 20260902050244 | 58 | 292 | 0.0 | 0.0 | 0.00 | 0.00 | 0.00 | 95 | 1022.3 |
| 20260902050215 | 58 | 292 | 0.0 | 1.0 | 0.00 | 0.00 | 0.00 | 95 | 1022.4 |
| 20260902050156 | 69 | 257 | 1.0 | 3.0 | 0.00 | 0.00 | 0.00 | 75 | 1021.5 |
| 20260902050031 | 58 | 292 | 0.0 | 1.0 | 0.00 | 0.00 | 0.00 | 95 | 1022.4 |
| 20260902045810 | 58 | 292 | 0.0 | 1.0 | 0.00 | 0.00 | 0.00 | 95 | 1022.3 |
| 20260902045748 | 58 | 292 | 0.0 | 1.0 | 0.00 | 0.00 | 0.00 | 95 | 1022.4 |
| 20260902045642 | 58 | 292 | 0.0 | 1.0 | 0.00 | 0.00 | 0.00 | 95 | 1022.3 |
| 20260902045538 | 58 | 292 | 0.0 | 1.0 | 0.00 | 0.00 | 0.00 | 95 | 1022.3 |
| 20260902045421 | 58 | 292 | 0.0 | 1.0 | 0.00 | 0.00 | 0.00 | 95 | 1022.3 |
| 20260902045402 | 58 | 292 | 0.0 | 0.0 | 0.00 | 0.00 | 0.00 | 95 | 1022.3 |
| 20260902045246 | 58 | 292 | 0.0 | 1.0 | 0.00 | 0.00 | 0.00 | 95 | 1022.2 |
| 20260902045119 | 58 | 292 | 0.0 | 2.0 | 0.00 | 0.00 | 0.00 | 95 | 1022.3 |
| 20260902045104 | 58 | 292 | 0.0 | 2.0 | 0.00 | 0.00 | 0.00 | 95 | 1022.2 |
| 20260902044733 | 58 | 292 | 0.0 | 2.0 | 0.00 | 0.00 | 0.00 | 95 | 1022.3 |
| 20260902044530 | 58 | 292 | 0.0 | 2.0 | 0.00 | 0.00 | 0.00 | 95 | 1022.2 |
| 20260902044433 | 58 | 292 | 1.0 | 2.0 | 0.00 | 0.00 | 0.00 | 94 | 1022.2 |
| 20260902043909 | 58 | 279 | 0.0 | 0.0 | 0.00 | 0.00 | 0.00 | 94 | 1022.2 |
| 20260902043827 | 58 | 279 | 0.0 | 0.0 | 0.00 | 0.00 | 0.00 | 94 | 1022.2 |
| 20260902043721 | 58 | 279 | 0.0 | 0.0 | 0.00 | 0.00 | 0.00 | 94 | 1022.2 |
| 20260902043549 | 58 | 279 | 0.0 | 0.0 | 0.00 | 0.00 | 0.00 | 94 | 1022.2 |
| 20260902043236 | 58 | 279 | 0.0 | 0.0 | 0.00 | 0.00 | 0.00 | 94 | 1022.2 |
| 20260902043040 | 58 | 279 | 0.0 | 0.0 | 0.00 | 0.00 | 0.00 | 95 | 1022.3 |
| 20260902042752 | 58 | 279 | 0.0 | 0.0 | 0.00 | 0.00 | 0.00 | 94 | 1022.2 |
| 20260902042310 | 58 | 279 | 0.0 | 0.0 | 0.00 | 0.00 | 0.00 | 94 | 1022.2 |
| 20260902041804 | 59 | 279 | 0.0 | 0.0 | 0.00 | 0.00 | 0.00 | 94 | 1022.2 |
| 20260902041737 | 59 | 279 | 0.0 | 0.0 | 0.00 | 0.00 | 0.00 | 94 | 1022.2 |
| 20260902041613 | 59 | 279 | 0.0 | 0.0 | 0.00 | 0.00 | 0.00 | 94 | 1022.2 |
| 20260902041429 | 59 | 279 | 0.0 | 0.0 | 0.00 | 0.00 | 0.00 | 94 | 1022.2 |
| 20260902041237 | 59 | 279 | 0.0 | 0.0 | 0.00 | 0.00 | 0.00 | 94 | 1022.3 |
| 20260902041214 | 59 | 279 | 0.0 | 0.0 | 0.00 | 0.00 | 0.00 | 94 | 1022.2 |
| 20260902041033 | 59 | 279 | 0.0 | 0.0 | 0.00 | 0.00 | 0.00 | 94 | 1022.3 |
| 20260902040808 | 59 | 279 | 0.0 | 0.0 | 0.00 | 0.00 | 0.00 | 94 | 1022.2 |
| 20260902040739 | 59 | 279 | 0.0 | 0.0 | 0.00 | 0.00 | 0.00 | 94 | 1022.3 |
| 20260902040636 | 59 | 279 | 0.0 | 0.0 | 0.00 | 0.00 | 0.00 | 94 | 1022.2 |
| 20260902040519 | 59 | 279 | 0.0 | 0.0 | 0.00 | 0.00 | 0.00 | 94 | 1022.2 |
| 20260902040315 | 59 | 279 | 0.0 | 0.0 | 0.00 | 0.00 | 0.00 | 94 | 1022.2 |
| 20260902035806 | 59 | 279 | 0.0 | 0.0 | 0.00 | 0.00 | 0.00 | 94 | 1022.3 |
| 20260902035741 | 59 | 279 | 0.0 | 0.0 | 0.00 | 0.00 | 0.00 | 94 | 1022.3 |
| 20260902035724 | 70 | 270 | 0.0 | 2.0 | 0.00 | 0.00 | 0.00 | 75 | 1021.5 |
| 20260902035700 | 70 | 270 | 0.0 | 4.0 | 0.00 | 0.00 | 0.00 | 75 | 1021.5 |
| 20260902035612 | 59 | 279 | 0.0 | 0.0 | 0.00 | 0.00 | 0.00 | 94 | 1022.3 |
| 20260902035553 | 70 | 263 | 0.0 | 4.0 | 0.00 | 0.00 | 0.00 | 74 | 1021.5 |
| 20260902035430 | 59 | 279 | 0.0 | 0.0 | 0.00 | 0.00 | 0.00 | 94 | 1022.3 |
| 20260902035246 | 59 | 279 | 0.0 | 0.0 | 0.00 | 0.00 | 0.00 | 94 | 1022.3 |
| 20260902035212 | 59 | 279 | 0.0 | 0.0 | 0.00 | 0.00 | 0.00 | 94 | 1022.3 |
| 20260902035058 | 59 | 279 | 0.0 | 0.0 | 0.00 | 0.00 | 0.00 | 94 | 1022.3 |
| 20260902034932 | 59 | 279 | 0.0 | 0.0 | 0.00 | 0.00 | 0.00 | 94 | 1022.3 |
| 20260902034917 | 59 | 279 | 0.0 | 0.0 | 0.00 | 0.00 | 0.00 | 94 | 1022.3 |
| 20260902034545 | 59 | 279 | 0.0 | 0.0 | 0.00 | 0.00 | 0.00 | 94 | 1022.3 |
| 20260902034404 | 59 | 279 | 0.0 | 0.0 | 0.00 | 0.00 | 0.00 | 94 | 1022.3 |
| 20260902034327 | 59 | 279 | 0.0 | 0.0 | 0.00 | 0.00 | 0.00 | 94 | 1022.4 |
| 20260902033832 | 59 | 279 | 0.0 | 0.0 | 0.00 | 0.00 | 0.00 | 94 | 1022.5 |
| 20260902033747 | 59 | 279 | 0.0 | 0.0 | 0.00 | 0.00 | 0.00 | 93 | 1022.4 |
| 20260902033638 | 59 | 279 | 0.0 | 0.0 | 0.00 | 0.00 | 0.00 | 94 | 1022.4 |
| 20260902033453 | 59 | 279 | 0.0 | 0.0 | 0.00 | 0.00 | 0.00 | 94 | 1022.3 |
| 20260902033339 | 59 | 279 | 0.0 | 0.0 | 0.00 | 0.00 | 0.00 | 93 | 1022.3 |
| 20260902032709 | 59 | 279 | 0.0 | 0.0 | 0.00 | 0.00 | 0.00 | 93 | 1022.4 |
| 20260902032607 | 59 | 279 | 0.0 | 0.0 | 0.00 | 0.00 | 0.00 | 93 | 1022.3 |
| 20260902032500 | 70 | 265 | 2.0 | 2.0 | 0.00 | 0.00 | 0.00 | 73 | 1021.6 |
| 20260902032424 | 60 | 279 | 0.0 | 0.0 | 0.00 | 0.00 | 0.00 | 93 | 1022.3 |
| 20260902032213 | 60 | 279 | 0.0 | 0.0 | 0.00 | 0.00 | 0.00 | 93 | 1022.4 |
| 20260902032153 | 71 | 265 | 0.0 | 3.0 | 0.00 | 0.00 | 0.00 | 73 | 1021.7 |
| 20260902032128 | 71 | 265 | 1.0 | 5.0 | 0.00 | 0.00 | 0.00 | 72 | 1021.5 |
| 20260902032054 | 71 | 254 | 3.0 | 6.0 | 0.00 | 0.00 | 0.00 | 72 | 1021.6 |
| 20260902032026 | 60 | 279 | 0.0 | 0.0 | 0.00 | 0.00 | 0.00 | 93 | 1022.4 |
| 20260902031806 | 60 | 279 | 0.0 | 0.0 | 0.00 | 0.00 | 0.00 | 93 | 1022.5 |
| 20260902031716 | 60 | 279 | 0.0 | 0.0 | 0.00 | 0.00 | 0.00 | 93 | 1022.4 |
| 20260902031700 | 71 | 267 | 3.0 | 6.0 | 0.00 | 0.00 | 0.00 | 71 | 1021.6 |
| 20260902031609 | 60 | 279 | 0.0 | 0.0 | 0.00 | 0.00 | 0.00 | 93 | 1022.5 |
| 20260902031441 | 60 | 279 | 0.0 | 0.0 | 0.00 | 0.00 | 0.00 | 93 | 1022.4 |
| 20260902031231 | 60 | 279 | 0.0 | 0.0 | 0.00 | 0.00 | 0.00 | 93 | 1022.4 |
| 20260902031119 | 60 | 279 | 0.0 | 0.0 | 0.00 | 0.00 | 0.00 | 93 | 1022.4 |
| 20260902031033 | 60 | 279 | 0.0 | 0.0 | 0.00 | 0.00 | 0.00 | 93 | 1022.5 |
| 20260902030852 | 60 | 279 | 0.0 | 0.0 | 0.00 | 0.00 | 0.00 | 93 | 1022.4 |
| 20260902030610 | 60 | 279 | 0.0 | 0.0 | 0.00 | 0.00 | 0.00 | 93 | 1022.4 |
| 20260902030434 | 60 | 279 | 0.0 | 0.0 | 0.00 | 0.00 | 0.00 | 93 | 1022.3 |
| 20260902030234 | 60 | 279 | 0.0 | 0.0 | 0.00 | 0.00 | 0.00 | 93 | 1022.3 |
| 20260902030114 | 60 | 279 | 0.0 | 0.0 | 0.00 | 0.00 | 0.00 | 93 | 1022.3 |
| 20260902030040 | 60 | 279 | 0.0 | 0.0 | 0.00 | 0.00 | 0.00 | 93 | 1022.2 |
| 20260902025929 | 60 | 279 | 0.0 | 0.0 | 0.00 | 0.00 | 0.00 | 93 | 1022.3 |
| 20260902025907 | 60 | 279 | 0.0 | 0.0 | 0.00 | 0.00 | 0.00 | 93 | 1022.3 |
| 20260902025421 | 60 | 279 | 0.0 | 0.0 | 0.00 | 0.00 | 0.00 | 93 | 1022.3 |
| 20260902025009 | 60 | 279 | 0.0 | 0.0 | 0.00 | 0.00 | 0.00 | 93 | 1022.2 |
| 20260902024854 | 60 | 279 | 0.0 | 0.0 | 0.00 | 0.00 | 0.00 | 93 | 1022.1 |
| 20260902024723 | 60 | 279 | 0.0 | 0.0 | 0.00 | 0.00 | 0.00 | 93 | 1022.1 |
| 20260902024643 | 60 | 279 | 0.0 | 0.0 | 0.00 | 0.00 | 0.00 | 93 | 1022.1 |
| 20260902024516 | 60 | 279 | 0.0 | 0.0 | 0.00 | 0.00 | 0.00 | 92 | 1022.1 |
| 20260902024326 | 60 | 279 | 0.0 | 0.0 | 0.00 | 0.00 | 0.00 | 93 | 1022.1 |
| 20260902024236 | 60 | 279 | 0.0 | 0.0 | 0.00 | 0.00 | 0.00 | 93 | 1022.1 |
| 20260902024146 | 60 | 279 | 0.0 | 0.0 | 0.00 | 0.00 | 0.00 | 93 | 1022.1 |
| 20260902024020 | 60 | 279 | 0.0 | 0.0 | 0.00 | 0.00 | 0.00 | 93 | 1022.1 |
| 20260902023653 | 60 | 279 | 0.0 | 0.0 | 0.00 | 0.00 | 0.00 | 93 | 1022.2 |
| 20260902023513 | 60 | 279 | 0.0 | 0.0 | 0.00 | 0.00 | 0.00 | 93 | 1022.2 |
| 20260902022828 | 61 | 279 | 0.0 | 0.0 | 0.00 | 0.00 | 0.00 | 93 | 1022.2 |
| 20260902022712 | 60 | 279 | 0.0 | 0.0 | 0.00 | 0.00 | 0.00 | 92 | 1022.2 |
| 20260902022606 | 60 | 279 | 0.0 | 0.0 | 0.00 | 0.00 | 0.00 | 92 | 1022.2 |
| 20260902022424 | 60 | 279 | 0.0 | 0.0 | 0.00 | 0.00 | 0.00 | 92 | 1022.2 |
| 20260902022210 | 61 | 279 | 0.0 | 0.0 | 0.00 | 0.00 | 0.00 | 92 | 1022.2 |
| 20260902022140 | 73 | 352 | 0.0 | 0.0 | 0.00 | 0.00 | 0.00 | 68 | 1021.1 |
| 20260902022028 | 61 | 279 | 0.0 | 0.0 | 0.00 | 0.00 | 0.00 | 92 | 1022.1 |
| 20260902021958 | 73 | 352 | 0.0 | 3.0 | 0.00 | 0.00 | 0.00 | 67 | 1021.0 |
| 20260902021841 | 61 | 279 | 0.0 | 0.0 | 0.00 | 0.00 | 0.00 | 92 | 1022.1 |
| 20260902021708 | 61 | 279 | 0.0 | 0.0 | 0.00 | 0.00 | 0.00 | 92 | 1022.1 |
| 20260902021651 | 73 | 352 | 2.0 | 4.0 | 0.00 | 0.00 | 0.00 | 67 | 1020.8 |
| 20260902021610 | 61 | 279 | 0.0 | 0.0 | 0.00 | 0.00 | 0.00 | 92 | 1022.0 |
| 20260902021554 | 74 | 344 | 3.0 | 7.0 | 0.00 | 0.00 | 0.00 | 66 | 1020.6 |
| 20260902021426 | 74 | 348 | 3.0 | 8.0 | 0.00 | 0.00 | 0.00 | 66 | 1020.5 |
| 20260902021412 | 61 | 279 | 0.0 | 0.0 | 0.00 | 0.00 | 0.00 | 92 | 1022.1 |
| 20260902021239 | 61 | 279 | 0.0 | 0.0 | 0.00 | 0.00 | 0.00 | 92 | 1022.0 |
| 20260902021232 | 61 | 279 | 0.0 | 0.0 | 0.00 | 0.00 | 0.00 | 92 | 1022.0 |
| 20260902021105 | 61 | 279 | 0.0 | 0.0 | 0.00 | 0.00 | 0.00 | 92 | 1022.0 |
| 20260902020723 | 61 | 279 | 0.0 | 0.0 | 0.00 | 0.00 | 0.00 | 92 | 1022.1 |
| 20260902020645 | 61 | 279 | 0.0 | 0.0 | 0.00 | 0.00 | 0.00 | 92 | 1022.1 |
| 20260902020553 | 61 | 279 | 0.0 | 0.0 | 0.00 | 0.00 | 0.00 | 92 | 1022.0 |
| 20260902020135 | 61 | 279 | 0.0 | 0.0 | 0.00 | 0.00 | 0.00 | 92 | 1022.0 |
| 20260902015932 | 61 | 279 | 0.0 | 0.0 | 0.00 | 0.00 | 0.00 | 91 | 1022.0 |
| 20260902015714 | 61 | 279 | 0.0 | 0.0 | 0.00 | 0.00 | 0.00 | 91 | 1022.0 |
| 20260902015654 | 74 | 352 | 3.0 | 8.0 | 0.00 | 0.00 | 0.00 | 66 | 1020.5 |
| 20260902015640 | 74 | 318 | 2.0 | 5.0 | 0.00 | 0.00 | 0.00 | 66 | 1020.4 |
| 20260902015540 | 61 | 279 | 0.0 | 0.0 | 0.00 | 0.00 | 0.00 | 91 | 1022.0 |
| 20260902015429 | 77 | 346 | 4.0 | 8.0 | 0.00 | 0.00 | 0.00 | 63 | 1019.9 |
| 20260902015357 | 61 | 279 | 0.0 | 0.0 | 0.00 | 0.00 | 0.00 | 91 | 1022.0 |
| 20260902015242 | 61 | 279 | 0.0 | 0.0 | 0.00 | 0.00 | 0.00 | 91 | 1021.9 |
| 20260902015226 | 61 | 279 | 0.0 | 0.0 | 0.00 | 0.00 | 0.00 | 91 | 1022.0 |
| 20260902015127 | 61 | 279 | 0.0 | 0.0 | 0.00 | 0.00 | 0.00 | 91 | 1022.0 |
| 20260902014712 | 61 | 279 | 0.0 | 0.0 | 0.00 | 0.00 | 0.00 | 91 | 1022.1 |
| 20260902014645 | 77 | 325 | 4.0 | 8.0 | 0.00 | 0.00 | 0.00 | 63 | 1019.8 |
| 20260902014539 | 61 | 279 | 0.0 | 0.0 | 0.00 | 0.00 | 0.00 | 91 | 1022.1 |
| 20260902014351 | 61 | 279 | 0.0 | 0.0 | 0.00 | 0.00 | 0.00 | 91 | 1022.0 |
| 20260902014213 | 62 | 279 | 0.0 | 0.0 | 0.00 | 0.00 | 0.00 | 91 | 1022.0 |
| 20260902014137 | 61 | 279 | 0.0 | 0.0 | 0.00 | 0.00 | 0.00 | 91 | 1022.1 |
| 20260902014020 | 62 | 279 | 0.0 | 0.0 | 0.00 | 0.00 | 0.00 | 91 | 1022.1 |
| 20260902013922 | 62 | 279 | 0.0 | 0.0 | 0.00 | 0.00 | 0.00 | 91 | 1022.0 |
| 20260902013815 | 62 | 279 | 0.0 | 0.0 | 0.00 | 0.00 | 0.00 | 91 | 1022.1 |
| 20260902013748 | 62 | 279 | 0.0 | 0.0 | 0.00 | 0.00 | 0.00 | 91 | 1022.1 |
| 20260902013657 | 62 | 279 | 0.0 | 0.0 | 0.00 | 0.00 | 0.00 | 91 | 1022.1 |
| 20260902013316 | 62 | 279 | 0.0 | 0.0 | 0.00 | 0.00 | 0.00 | 91 | 1022.1 |
| 20260902013205 | 62 | 279 | 0.0 | 0.0 | 0.00 | 0.00 | 0.00 | 91 | 1022.2 |
| 20260902013125 | 62 | 279 | 0.0 | 0.0 | 0.00 | 0.00 | 0.00 | 91 | 1022.1 |
| 20260902013013 | 62 | 279 | 0.0 | 0.0 | 0.00 | 0.00 | 0.00 | 91 | 1022.2 |
| 20260902012935 | 62 | 279 | 0.0 | 0.0 | 0.00 | 0.00 | 0.00 | 91 | 1022.1 |
| 20260902012840 | 62 | 279 | 0.0 | 0.0 | 0.00 | 0.00 | 0.00 | 91 | 1022.2 |
| 20260902012755 | 62 | 279 | 0.0 | 0.0 | 0.00 | 0.00 | 0.00 | 91 | 1022.1 |
| 20260902012108 | 62 | 279 | 0.0 | 0.0 | 0.00 | 0.00 | 0.00 | 90 | 1022.2 |
| 20260902012010 | 62 | 279 | 0.0 | 0.0 | 0.00 | 0.00 | 0.00 | 90 | 1022.3 |
| 20260902011634 | 62 | 279 | 0.0 | 0.0 | 0.00 | 0.00 | 0.00 | 90 | 1022.3 |
| 20260902011451 | 62 | 279 | 0.0 | 0.0 | 0.00 | 0.00 | 0.00 | 91 | 1022.2 |
| 20260902011436 | 62 | 279 | 0.0 | 0.0 | 0.00 | 0.00 | 0.00 | 91 | 1022.2 |
| 20260902011336 | 62 | 279 | 0.0 | 0.0 | 0.00 | 0.00 | 0.00 | 91 | 1022.2 |
| 20260902011245 | 62 | 279 | 0.0 | 0.0 | 0.00 | 0.00 | 0.00 | 90 | 1022.2 |
| 20260902011128 | 62 | 279 | 0.0 | 0.0 | 0.00 | 0.00 | 0.00 | 90 | 1022.2 |
| 20260902010745 | 62 | 279 | 0.0 | 0.0 | 0.00 | 0.00 | 0.00 | 90 | 1022.2 |
| 20260902010634 | 62 | 279 | 0.0 | 0.0 | 0.00 | 0.00 | 0.00 | 90 | 1022.2 |
| 20260902010620 | 62 | 279 | 0.0 | 0.0 | 0.00 | 0.00 | 0.00 | 90 | 1022.2 |
| 20260902010513 | 62 | 279 | 0.0 | 0.0 | 0.00 | 0.00 | 0.00 | 90 | 1022.2 |
| 20260902010105 | 62 | 279 | 0.0 | 0.0 | 0.00 | 0.00 | 0.00 | 90 | 1022.2 |
| 20260902010033 | 62 | 279 | 0.0 | 0.0 | 0.00 | 0.00 | 0.00 | 90 | 1022.2 |
| 20260902005937 | 62 | 279 | 0.0 | 0.0 | 0.00 | 0.00 | 0.00 | 90 | 1022.2 |
| 20260902005903 | 62 | 279 | 0.0 | 0.0 | 0.00 | 0.00 | 0.00 | 90 | 1022.2 |
| 20260902005845 | 62 | 279 | 0.0 | 0.0 | 0.00 | 0.00 | 0.00 | 90 | 1022.2 |
| 20260902005744 | 62 | 279 | 0.0 | 0.0 | 0.00 | 0.00 | 0.00 | 90 | 1022.2 |
| 20260902005708 | 62 | 279 | 0.0 | 0.0 | 0.00 | 0.00 | 0.00 | 90 | 1022.3 |
| 20260902005657 | 62 | 279 | 0.0 | 0.0 | 0.00 | 0.00 | 0.00 | 90 | 1022.2 |
| 20260902005619 | 62 | 279 | 0.0 | 0.0 | 0.00 | 0.00 | 0.00 | 90 | 1022.2 |
| 20260902005519 | 62 | 279 | 0.0 | 0.0 | 0.00 | 0.00 | 0.00 | 90 | 1022.2 |
| 20260902005457 | 62 | 279 | 0.0 | 0.0 | 0.00 | 0.00 | 0.00 | 90 | 1022.2 |
| 20260902005435 | 62 | 279 | 0.0 | 0.0 | 0.00 | 0.00 | 0.00 | 90 | 1022.2 |
| 20260902005340 | 62 | 279 | 0.0 | 0.0 | 0.00 | 0.00 | 0.00 | 90 | 1022.2 |
| 20260902005054 | 62 | 279 | 0.0 | 0.0 | 0.00 | 0.00 | 0.00 | 90 | 1022.3 |
| 20260902004959 | 62 | 279 | 0.0 | 0.0 | 0.00 | 0.00 | 0.00 | 90 | 1022.2 |
| 20260902004915 | 63 | 279 | 0.0 | 0.0 | 0.00 | 0.00 | 0.00 | 90 | 1022.2 |
| 20260902004851 | 63 | 279 | 0.0 | 0.0 | 0.00 | 0.00 | 0.00 | 90 | 1022.2 |
| 20260902004833 | 63 | 279 | 0.0 | 0.0 | 0.00 | 0.00 | 0.00 | 90 | 1022.2 |
| 20260902004724 | 63 | 279 | 0.0 | 0.0 | 0.00 | 0.00 | 0.00 | 89 | 1022.2 |
| 20260902004614 | 63 | 279 | 0.0 | 0.0 | 0.00 | 0.00 | 0.00 | 89 | 1022.1 |
| 20260902004529 | 63 | 279 | 0.0 | 0.0 | 0.00 | 0.00 | 0.00 | 89 | 1022.1 |
| 20260902004203 | 63 | 279 | 0.0 | 0.0 | 0.00 | 0.00 | 0.00 | 89 | 1022.2 |
| 20260902004137 | 63 | 279 | 0.0 | 0.0 | 0.00 | 0.00 | 0.00 | 89 | 1022.2 |
| 20260902004045 | 63 | 279 | 0.0 | 0.0 | 0.00 | 0.00 | 0.00 | 89 | 1022.2 |
| 20260902003956 | 63 | 279 | 0.0 | 0.0 | 0.00 | 0.00 | 0.00 | 89 | 1022.2 |
| 20260902003857 | 63 | 279 | 0.0 | 1.0 | 0.00 | 0.00 | 0.00 | 88 | 1022.1 |
| 20260902003801 | 63 | 279 | 0.0 | 1.0 | 0.00 | 0.00 | 0.00 | 88 | 1022.2 |
| 20260902003152 | 63 | 279 | 0.0 | 1.0 | 0.00 | 0.00 | 0.00 | 87 | 1022.2 |
| 20260902003103 | 63 | 279 | 0.0 | 1.0 | 0.00 | 0.00 | 0.00 | 87 | 1022.2 |
| 20260902003047 | 63 | 279 | 0.0 | 1.0 | 0.00 | 0.00 | 0.00 | 87 | 1022.2 |
| 20260902002924 | 64 | 279 | 0.0 | 0.0 | 0.00 | 0.00 | 0.00 | 87 | 1022.1 |
| 20260902002839 | 64 | 279 | 0.0 | 0.0 | 0.00 | 0.00 | 0.00 | 87 | 1022.0 |
| 20260902002213 | 64 | 279 | 0.0 | 0.0 | 0.00 | 0.00 | 0.00 | 86 | 1022.0 |
| 20260902001918 | 64 | 279 | 0.0 | 0.0 | 0.00 | 0.00 | 0.00 | 86 | 1022.0 |
| 20260902001035 | 64 | 279 | 0.0 | 0.0 | 0.00 | 0.00 | 0.00 | 86 | 1022.0 |
| 20260902000943 | 64 | 279 | 0.0 | 0.0 | 0.00 | 0.00 | 0.00 | 86 | 1022.0 |
| 20260902000906 | 64 | 279 | 0.0 | 0.0 | 0.00 | 0.00 | 0.00 | 85 | 1022.0 |
| 20260902000838 | 64 | 279 | 0.0 | 0.0 | 0.00 | 0.00 | 0.00 | 85 | 1022.0 |
| 20260902000727 | 65 | 279 | 0.0 | 0.0 | 0.00 | 0.00 | 0.00 | 85 | 1022.0 |
| 20260902000634 | 65 | 279 | 0.0 | 0.0 | 0.00 | 0.00 | 0.00 | 85 | 1022.0 |
| 20260902000618 | 65 | 279 | 0.0 | 0.0 | 0.00 | 0.00 | 0.00 | 85 | 1022.1 |
| 20260902000534 | 65 | 279 | 0.0 | 0.0 | 0.00 | 0.00 | 0.00 | 85 | 1022.0 |
| 20260902000439 | 65 | 279 | 0.0 | 0.0 | 0.00 | 0.00 | 0.00 | 85 | 1021.9 |
| 20260902000414 | 65 | 279 | 0.0 | 0.0 | 0.00 | 0.00 | 0.00 | 85 | 1022.0 |
| 20260902000359 | 65 | 279 | 0.0 | 0.0 | 0.00 | 0.00 | 0.00 | 85 | 1022.0 |
| 20260902000250 | 65 | 279 | 0.0 | 0.0 | 0.00 | 0.00 | 0.00 | 84 | 1022.0 |
| 20260902000150 | 65 | 279 | 0.0 | 0.0 | 0.00 | 0.00 | 0.00 | 84 | 1022.0 |
| 20260901235527 | 65 | 279 | 0.0 | 0.0 | 0.00 | 0.00 | 0.00 | 84 | 1022.0 |
| 20260901235513 | 65 | 279 | 0.0 | 0.0 | 0.00 | 0.00 | 0.00 | 84 | 1022.0 |
| 20260901234839 | 65 | 279 | 0.0 | 0.0 | 0.00 | 0.00 | 0.00 | 84 | 1022.1 |
| 20260901234457 | 65 | 279 | 0.0 | 0.0 | 0.00 | 0.00 | 0.00 | 83 | 1022.0 |
| 20260901234428 | 65 | 279 | 0.0 | 0.0 | 0.00 | 0.00 | 0.00 | 83 | 1022.1 |
| 20260901234409 | 66 | 279 | 0.0 | 0.0 | 0.00 | 0.00 | 0.00 | 83 | 1022.0 |
| 20260901233442 | 66 | 279 | 0.0 | 1.0 | 0.00 | 0.00 | 0.00 | 83 | 1022.0 |
| 20260901233342 | 66 | 279 | 0.0 | 2.0 | 0.00 | 0.00 | 0.00 | 83 | 1022.1 |
| 20260901233255 | 66 | 279 | 0.0 | 2.0 | 0.00 | 0.00 | 0.00 | 83 | 1022.1 |
| 20260901233236 | 66 | 279 | 0.0 | 2.0 | 0.00 | 0.00 | 0.00 | 83 | 1022.0 |
| 20260901233139 | 66 | 279 | 0.0 | 2.0 | 0.00 | 0.00 | 0.00 | 83 | 1022.0 |
| 20260901233037 | 66 | 279 | 0.0 | 2.0 | 0.00 | 0.00 | 0.00 | 83 | 1021.9 |
| 20260901233012 | 66 | 279 | 1.0 | 2.0 | 0.00 | 0.00 | 0.00 | 83 | 1022.0 |
| 20260901232923 | 66 | 279 | 1.0 | 2.0 | 0.00 | 0.00 | 0.00 | 83 | 1022.0 |
| 20260901232811 | 66 | 260 | 1.0 | 3.0 | 0.00 | 0.00 | 0.00 | 83 | 1022.0 |
| 20260901232711 | 66 | 264 | 1.0 | 4.0 | 0.00 | 0.00 | 0.00 | 82 | 1021.9 |
| 20260901232644 | 67 | 271 | 1.0 | 4.0 | 0.00 | 0.00 | 0.00 | 82 | 1021.9 |
| 20260901232517 | 67 | 238 | 1.0 | 4.0 | 0.00 | 0.00 | 0.00 | 83 | 1021.9 |
| 20260901232400 | 67 | 265 | 1.0 | 4.0 | 0.00 | 0.00 | 0.00 | 82 | 1022.0 |
| 20260901232345 | 67 | 265 | 1.0 | 4.0 | 0.00 | 0.00 | 0.00 | 82 | 1021.9 |
| 20260901232246 | 67 | 271 | 1.0 | 4.0 | 0.00 | 0.00 | 0.00 | 82 | 1021.9 |
| 20260901231757 | 67 | 278 | 1.0 | 3.0 | 0.00 | 0.00 | 0.00 | 82 | 1022.0 |
| 20260901231341 | 67 | 248 | 0.0 | 2.0 | 0.00 | 0.00 | 0.00 | 81 | 1021.9 |
| 20260901231019 | 67 | 248 | 0.0 | 1.0 | 0.00 | 0.00 | 0.00 | 81 | 1021.9 |
| 20260901230616 | 67 | 248 | 0.0 | 3.0 | 0.00 | 0.00 | 0.00 | 81 | 1021.9 |
| 20260901230530 | 67 | 248 | 0.0 | 3.0 | 0.00 | 0.00 | 0.00 | 81 | 1022.0 |
| 20260901230511 | 67 | 248 | 0.0 | 3.0 | 0.00 | 0.00 | 0.00 | 81 | 1021.9 |
| 20260901230403 | 67 | 248 | 0.0 | 3.0 | 0.00 | 0.00 | 0.00 | 81 | 1022.0 |
| 20260901230255 | 67 | 248 | 1.0 | 3.0 | 0.00 | 0.00 | 0.00 | 80 | 1022.0 |
| 20260901230232 | 67 | 248 | 1.0 | 3.0 | 0.00 | 0.00 | 0.00 | 80 | 1021.9 |
| 20260901230143 | 67 | 279 | 1.0 | 3.0 | 0.00 | 0.00 | 0.00 | 80 | 1021.9 |
| 20260901230029 | 67 | 279 | 1.0 | 3.0 | 0.00 | 0.00 | 0.00 | 80 | 1021.9 |
| 20260901225306 | 68 | 252 | 2.0 | 3.0 | 0.00 | 0.00 | 0.00 | 80 | 1022.0 |
| 20260901225128 | 68 | 265 | 1.0 | 4.0 | 0.00 | 0.00 | 0.00 | 80 | 1021.9 |
| 20260901225112 | 68 | 259 | 1.0 | 4.0 | 0.00 | 0.00 | 0.00 | 80 | 1021.9 |
| 20260901224643 | 68 | 254 | 2.0 | 4.0 | 0.00 | 0.00 | 0.00 | 80 | 1021.9 |
| 20260901224531 | 68 | 254 | 2.0 | 4.0 | 0.00 | 0.00 | 0.00 | 80 | 1021.9 |
| 20260901224453 | 68 | 250 | 2.0 | 4.0 | 0.00 | 0.00 | 0.00 | 80 | 1022.0 |
| 20260901224259 | 68 | 238 | 2.0 | 4.0 | 0.00 | 0.00 | 0.00 | 80 | 1021.9 |
| 20260901224117 | 68 | 275 | 2.0 | 4.0 | 0.00 | 0.00 | 0.00 | 79 | 1022.0 |
| 20260901224101 | 68 | 275 | 2.0 | 4.0 | 0.00 | 0.00 | 0.00 | 79 | 1021.9 |
| 20260901223928 | 68 | 287 | 2.0 | 4.0 | 0.00 | 0.00 | 0.00 | 79 | 1022.0 |
| 20260901223742 | 68 | 267 | 2.0 | 4.0 | 0.00 | 0.00 | 0.00 | 79 | 1022.0 |
| 20260901223641 | 68 | 244 | 2.0 | 4.0 | 0.00 | 0.00 | 0.00 | 79 | 1022.0 |
| 20260901223556 | 68 | 280 | 2.0 | 4.0 | 0.00 | 0.00 | 0.00 | 79 | 1022.0 |
| 20260901223426 | 68 | 273 | 2.0 | 4.0 | 0.00 | 0.00 | 0.00 | 79 | 1022.0 |
| 20260901223246 | 68 | 284 | 3.0 | 4.0 | 0.00 | 0.00 | 0.00 | 78 | 1022.0 |
| 20260901223239 | 68 | 285 | 3.0 | 4.0 | 0.00 | 0.00 | 0.00 | 78 | 1022.0 |
| 20260901223104 | 68 | 292 | 3.0 | 4.0 | 0.00 | 0.00 | 0.00 | 78 | 1022.0 |
| 20260901222615 | 68 | 291 | 2.0 | 4.0 | 0.00 | 0.00 | 0.00 | 78 | 1021.9 |
| 20260901222533 | 68 | 276 | 2.0 | 4.0 | 0.00 | 0.00 | 0.00 | 78 | 1021.9 |
| 20260901222358 | 68 | 265 | 2.0 | 4.0 | 0.00 | 0.00 | 0.00 | 78 | 1021.9 |
| 20260901222011 | 69 | 275 | 2.0 | 4.0 | 0.00 | 0.00 | 0.00 | 78 | 1021.8 |
| 20260901221439 | 69 | 275 | 2.0 | 3.0 | 0.00 | 0.00 | 0.00 | 77 | 1021.9 |
| 20260901221345 | 69 | 258 | 2.0 | 3.0 | 0.00 | 0.00 | 0.00 | 77 | 1021.8 |
| 20260901220500 | 69 | 259 | 2.0 | 3.0 | 0.00 | 0.00 | 0.00 | 77 | 1021.7 |
| 20260901220311 | 69 | 259 | 0.0 | 2.0 | 0.00 | 0.00 | 0.00 | 77 | 1021.7 |
| 20260901220202 | 69 | 247 | 0.0 | 0.0 | 0.00 | 0.00 | 0.00 | 77 | 1021.7 |
| 20260901220124 | 69 | 247 | 0.0 | 0.0 | 0.00 | 0.00 | 0.00 | 76 | 1021.6 |
| 20260901220045 | 69 | 247 | 0.0 | 0.0 | 0.00 | 0.00 | 0.00 | 76 | 1021.6 |
| 20260901215634 | 69 | 247 | 0.0 | 3.0 | 0.00 | 0.00 | 0.00 | 76 | 1021.5 |
| 20260901215536 | 69 | 247 | 0.0 | 3.0 | 0.00 | 0.00 | 0.00 | 76 | 1021.5 |
| 20260901215442 | 69 | 247 | 0.0 | 3.0 | 0.00 | 0.00 | 0.00 | 76 | 1021.5 |
| 20260901215401 | 69 | 247 | 1.0 | 3.0 | 0.00 | 0.00 | 0.00 | 75 | 1021.5 |
| 20260901215329 | 69 | 247 | 2.0 | 3.0 | 0.00 | 0.00 | 0.00 | 75 | 1021.5 |
| 20260901215212 | 69 | 250 | 2.0 | 3.0 | 0.00 | 0.00 | 0.00 | 75 | 1021.5 |
| 20260901215029 | 69 | 264 | 2.0 | 3.0 | 0.00 | 0.00 | 0.00 | 75 | 1021.6 |
| 20260901215025 | 69 | 264 | 2.0 | 3.0 | 0.00 | 0.00 | 0.00 | 75 | 1021.6 |
| 20260901214456 | 70 | 270 | 0.0 | 2.0 | 0.00 | 0.00 | 0.00 | 75 | 1021.5 |
| 20260901214155 | 70 | 270 | 0.0 | 2.0 | 0.00 | 0.00 | 0.00 | 75 | 1021.5 |
| 20260901214054 | 70 | 270 | 0.0 | 4.0 | 0.00 | 0.00 | 0.00 | 75 | 1021.5 |
| 20260901213710 | 70 | 270 | 0.0 | 4.0 | 0.00 | 0.00 | 0.00 | 75 | 1021.5 |
| 20260901213543 | 70 | 270 | 1.0 | 4.0 | 0.00 | 0.00 | 0.00 | 75 | 1021.5 |
| 20260901213405 | 70 | 253 | 2.0 | 4.0 | 0.00 | 0.00 | 0.00 | 74 | 1021.6 |
| 20260901213327 | 70 | 240 | 1.0 | 4.0 | 0.00 | 0.00 | 0.00 | 74 | 1021.6 |
| 20260901212847 | 70 | 259 | 1.0 | 3.0 | 0.00 | 0.00 | 0.00 | 74 | 1021.5 |
| 20260901212728 | 70 | 258 | 2.0 | 3.0 | 0.00 | 0.00 | 0.00 | 74 | 1021.7 |
| 20260901212703 | 70 | 240 | 2.0 | 3.0 | 0.00 | 0.00 | 0.00 | 74 | 1021.6 |
| 20260901211916 | 70 | 265 | 2.0 | 2.0 | 0.00 | 0.00 | 0.00 | 73 | 1021.7 |
| 20260901211818 | 70 | 265 | 2.0 | 2.0 | 0.00 | 0.00 | 0.00 | 73 | 1021.7 |
| 20260901211718 | 70 | 265 | 2.0 | 3.0 | 0.00 | 0.00 | 0.00 | 73 | 1021.7 |
| 20260901211625 | 71 | 265 | 0.0 | 3.0 | 0.00 | 0.00 | 0.00 | 73 | 1021.6 |
| 20260901211232 | 71 | 265 | 0.0 | 4.0 | 0.00 | 0.00 | 0.00 | 73 | 1021.5 |
| 20260901210908 | 71 | 265 | 1.0 | 5.0 | 0.00 | 0.00 | 0.00 | 72 | 1021.5 |
| 20260901210758 | 71 | 265 | 1.0 | 5.0 | 0.00 | 0.00 | 0.00 | 72 | 1021.5 |
| 20260901210634 | 71 | 257 | 2.0 | 5.0 | 0.00 | 0.00 | 0.00 | 72 | 1021.6 |
| 20260901210533 | 71 | 252 | 2.0 | 5.0 | 0.00 | 0.00 | 0.00 | 72 | 1021.6 |
| 20260901210504 | 71 | 261 | 2.0 | 5.0 | 0.00 | 0.00 | 0.00 | 72 | 1021.7 |
| 20260901205927 | 71 | 265 | 3.0 | 6.0 | 0.00 | 0.00 | 0.00 | 71 | 1021.6 |
| 20260901205532 | 71 | 242 | 3.0 | 6.0 | 0.00 | 0.00 | 0.00 | 71 | 1021.5 |
| 20260901205338 | 71 | 258 | 3.0 | 6.0 | 0.00 | 0.00 | 0.00 | 71 | 1021.5 |
| 20260901205239 | 71 | 257 | 3.0 | 6.0 | 0.00 | 0.00 | 0.00 | 71 | 1021.5 |
| 20260901205158 | 71 | 254 | 3.0 | 6.0 | 0.00 | 0.00 | 0.00 | 71 | 1021.5 |
| 20260901205000 | 71 | 257 | 3.0 | 6.0 | 0.00 | 0.00 | 0.00 | 71 | 1021.4 |
| 20260901204818 | 71 | 257 | 2.0 | 4.0 | 0.00 | 0.00 | 0.00 | 71 | 1021.4 |
| 20260901204411 | 71 | 271 | 2.0 | 4.0 | 0.00 | 0.00 | 0.00 | 71 | 1021.4 |
| 20260901204243 | 71 | 257 | 2.0 | 4.0 | 0.00 | 0.00 | 0.00 | 71 | 1021.4 |
| 20260901204206 | 71 | 262 | 2.0 | 4.0 | 0.00 | 0.00 | 0.00 | 71 | 1021.4 |
| 20260901204131 | 71 | 262 | 2.0 | 4.0 | 0.00 | 0.00 | 0.00 | 71 | 1021.4 |
| 20260901203951 | 71 | 276 | 2.0 | 4.0 | 0.00 | 0.00 | 0.00 | 71 | 1021.3 |
| 20260901203812 | 71 | 303 | 2.0 | 3.0 | 0.00 | 0.00 | 0.00 | 71 | 1021.3 |
| 20260901203634 | 71 | 313 | 0.0 | 2.0 | 0.00 | 0.00 | 0.00 | 71 | 1021.2 |
| 20260901203521 | 72 | 352 | 0.0 | 0.0 | 0.00 | 0.00 | 0.00 | 70 | 1021.2 |
| 20260901203457 | 72 | 352 | 0.0 | 0.0 | 0.00 | 0.00 | 0.00 | 70 | 1021.2 |
| 20260901203430 | 72 | 352 | 0.0 | 0.0 | 0.00 | 0.00 | 0.00 | 70 | 1021.2 |
| 20260901203321 | 72 | 352 | 0.0 | 0.0 | 0.00 | 0.00 | 0.00 | 70 | 1021.1 |
| 20260901203000 | 72 | 352 | 0.0 | 0.0 | 0.00 | 0.00 | 0.00 | 69 | 1021.1 |
| 20260901202851 | 73 | 352 | 0.0 | 0.0 | 0.00 | 0.00 | 0.00 | 69 | 1021.1 |